IK6ZNK-3 Weather Reports


time (UTC)temp
F
wind
direction
speed
knots
gust
knots
rain 1hr
in
rain 24hr
in
rain mn
in
humidity
%
barometer
mb
20260906053146 79 184 0.0 2.6 0.00 0.00 0.00 49 1012.2
20260906053046 79 191 0.0 2.6 0.00 0.00 0.00 49 1012.2
20260906052946 79 196 0.0 3.5 0.00 0.00 0.00 49 1012.2
20260906052846 78 192 0.0 3.5 0.00 0.00 0.00 49 1012.3
20260906052746 78 191 0.0 3.5 0.00 0.00 0.00 50 1012.4
20260906052646 78 193 0.0 3.5 0.00 0.00 0.00 50 1012.3
20260906052546 78 196 0.0 3.5 0.00 0.00 0.00 51 1012.2
20260906052446 77 196 0.9 3.5 0.00 0.00 0.00 52 1012.3
20260906052346 77 197 0.9 3.5 0.00 0.00 0.00 52 1012.1
20260906052245 77 202 1.7 3.5 0.00 0.00 0.00 52 1012.4
20260906052146 77 205 1.7 3.5 0.00 0.00 0.00 52 1012.3
20260906052045 77 208 1.7 3.5 0.00 0.00 0.00 53 1012.4
20260906051946 77 207 1.7 3.5 0.00 0.00 0.00 53 1012.1
20260906051845 77 209 2.6 3.5 0.00 0.00 0.00 53 1012.2
20260906051745 77 208 2.6 3.5 0.00 0.00 0.00 53 1012.2
20260906051645 76 205 1.7 3.5 0.00 0.00 0.00 52 1012.3
20260906051545 76 200 1.7 3.5 0.00 0.00 0.00 53 1012.3
20260906051445 76 200 0.9 3.5 0.00 0.00 0.00 53 1012.3
20260906051345 76 203 0.9 3.5 0.00 0.00 0.00 53 1012.1
20260906051245 76 195 1.7 2.6 0.00 0.00 0.00 54 1012.2
20260906051145 76 183 0.9 2.6 0.00 0.00 0.00 55 1012.1
20260906051045 76 167 0.9 2.6 0.00 0.00 0.00 55 1012.1
20260906050945 76 164 0.9 2.6 0.00 0.00 0.00 55 1012.2
20260906050844 76 169 0.0 2.6 0.00 0.00 0.00 55 1012.2
20260906050744 76 180 0.9 2.6 0.00 0.00 0.00 55 1012.2
20260906050644 76 180 0.9 2.6 0.00 0.00 0.00 55 1012.1
20260906050544 76 180 0.0 2.6 0.00 0.00 0.00 55 1012.1
20260906050444 76 360 0.0 1.7 0.00 0.00 0.00 55 1012.1
20260906050344 76 360 0.0 1.7 0.00 0.00 0.00 55 1012.2
20260906050244 76 29 0.0 1.7 0.00 0.00 0.00 55 1012.1
20260906050144 77 47 0.0 1.7 0.00 0.00 0.00 54 1012.2
20260906050044 77 45 0.0 2.6 0.00 0.00 0.00 54 1012.2
20260906045944 77 37 0.0 2.6 0.00 0.00 0.00 54 1012.2
20260906045844 77 35 0.0 2.6 0.00 0.00 0.00 54 1012.2
20260906045744 77 30 0.0 2.6 0.00 0.00 0.00 54 1012.3
20260906045644 77 27 0.0 2.6 0.00 0.00 0.00 54 1012.3
20260906045544 77 31 0.9 2.6 0.00 0.00 0.00 54 1011.9
20260906045444 77 36 0.9 2.6 0.00 0.00 0.00 54 1012.1
20260906045344 77 41 0.9 2.6 0.00 0.00 0.00 54 1012.1
20260906045243 77 38 0.9 2.6 0.00 0.00 0.00 54 1012.1
20260906045144 78 48 0.9 3.5 0.00 0.00 0.00 53 1012.2
20260906045043 78 56 0.9 3.5 0.00 0.00 0.00 53 1012.2
20260906044943 79 89 0.0 5.2 0.00 0.00 0.00 53 1012.1
20260906044843 79 98 0.0 5.2 0.00 0.00 0.00 53 1012.1
20260906044743 79 110 0.9 5.2 0.00 0.00 0.00 51 1012.1
20260906044643 79 120 0.9 7.0 0.00 0.00 0.00 49 1012.2
20260906044543 79 128 0.0 7.0 0.00 0.00 0.00 49 1012.0
20260906044443 79 129 0.0 7.0 0.00 0.00 0.00 49 1012.0
20260906044343 79 130 0.0 7.0 0.00 0.00 0.00 48 1012.1
20260906044243 79 131 1.7 7.0 0.00 0.00 0.00 48 1011.9
20260906044143 79 132 1.7 7.0 0.00 0.00 0.00 48 1011.9
20260906044043 79 134 1.7 7.0 0.00 0.00 0.00 48 1011.9
20260906043943 79 135 3.5 7.0 0.00 0.00 0.00 47 1012.1
20260906043843 78 135 2.6 7.0 0.00 0.00 0.00 47 1011.9
20260906043743 78 135 3.5 7.0 0.00 0.00 0.00 47 1011.8
20260906043643 78 135 3.5 7.0 0.00 0.00 0.00 47 1011.8
20260906043543 78 135 4.3 7.0 0.00 0.00 0.00 48 1011.7
20260906043442 78 135 3.5 7.0 0.00 0.00 0.00 48 1011.8
20260906043343 78 135 3.5 7.0 0.00 0.00 0.00 48 1011.9
20260906043243 78 135 3.5 7.0 0.00 0.00 0.00 48 1011.9
20260906043142 78 135 3.5 7.0 0.00 0.00 0.00 48 1011.7
20260906043042 78 135 3.5 7.0 0.00 0.00 0.00 49 1011.9
20260906042942 78 135 3.5 7.0 0.00 0.00 0.00 49 1011.7
20260906042843 78 135 3.5 7.0 0.00 0.00 0.00 49 1011.7
20260906042743 78 135 4.3 7.0 0.00 0.00 0.00 49 1011.7
20260906042642 78 135 3.5 7.0 0.00 0.00 0.00 50 1011.7
20260906042542 78 135 3.5 7.0 0.00 0.00 0.00 50 1011.6
20260906042442 78 135 3.5 7.0 0.00 0.00 0.00 50 1011.6
20260906042342 78 135 3.5 7.0 0.00 0.00 0.00 50 1011.6
20260906042242 78 139 3.5 7.0 0.00 0.00 0.00 50 1011.6
20260906042142 78 140 3.5 7.0 0.00 0.00 0.00 50 1011.7
20260906042042 78 140 3.5 7.0 0.00 0.00 0.00 50 1011.8
20260906041942 78 140 4.3 7.0 0.00 0.00 0.00 51 1011.6
20260906041842 78 140 3.5 7.0 0.00 0.00 0.00 51 1011.7
20260906041741 78 140 3.5 7.0 0.00 0.00 0.00 51 1011.6
20260906041641 78 141 3.5 7.0 0.00 0.00 0.00 51 1011.6
20260906041541 78 141 3.5 7.0 0.00 0.00 0.00 52 1011.7
20260906041441 78 141 3.5 6.1 0.00 0.00 0.00 52 1011.6
20260906041341 78 142 3.5 6.1 0.00 0.00 0.00 51 1011.7
20260906041240 78 136 3.5 6.1 0.00 0.00 0.00 52 1011.6
20260906041140 78 135 2.6 4.3 0.00 0.00 0.00 53 1011.7
20260906041040 78 137 2.6 4.3 0.00 0.00 0.00 53 1011.6
20260906040940 78 137 3.5 4.3 0.00 0.00 0.00 53 1011.6
20260906040839 78 138 1.7 3.5 0.00 0.00 0.00 54 1011.6
20260906040739 78 138 1.7 3.5 0.00 0.00 0.00 54 1011.7
20260906040639 78 138 2.6 3.5 0.00 0.00 0.00 54 1011.6
20260906040539 77 139 2.6 3.5 0.00 0.00 0.00 55 1011.9
20260906040439 77 140 2.6 3.5 0.00 0.00 0.00 55 1011.4
20260906040338 77 141 1.7 2.6 0.00 0.00 0.00 56 1011.7
20260906040239 77 142 1.7 2.6 0.00 0.00 0.00 56 1011.7
20260906040139 77 146 1.7 2.6 0.00 0.00 0.00 56 1011.6
20260906040039 77 135 1.7 2.6 0.00 0.00 0.00 56 1011.7
20260906035938 76 135 0.9 2.6 0.00 0.00 0.00 56 1011.6
20260906035838 76 135 0.9 2.6 0.00 0.00 0.00 57 1011.4
20260906035738 76 0 0.0 0.0 0.00 0.00 0.00 57 1011.5
20260906035638 76 0 0.0 0.0 0.00 0.00 0.00 57 1011.7
20260906035539 76 135 0.0 1.7 0.00 0.00 0.00 57 1011.5
20260906035438 76 135 0.0 1.7 0.00 0.00 0.00 55 1011.4
20260906035338 76 135 0.0 1.7 0.00 0.00 0.00 55 1011.5
20260906035238 76 135 0.0 1.7 0.00 0.00 0.00 55 1011.5
20260906035138 76 135 0.0 1.7 0.00 0.00 0.00 53 1011.7
20260906035038 76 135 0.0 1.7 0.00 0.00 0.00 53 1011.4
20260906034938 76 135 0.0 1.7 0.00 0.00 0.00 53 1011.3
20260906034838 77 135 0.0 1.7 0.00 0.00 0.00 51 1011.4
20260906034738 78 135 0.0 1.7 0.00 0.00 0.00 51 1011.5
20260906034638 78 135 0.0 1.7 0.00 0.00 0.00 51 1011.4
20260906034538 79 134 0.9 1.7 0.00 0.00 0.00 54 1011.3
20260906034438 79 130 0.9 1.7 0.00 0.00 0.00 54 1011.6
20260906034338 79 120 0.9 3.5 0.00 0.00 0.00 54 1011.4
20260906034238 79 112 0.9 3.5 0.00 0.00 0.00 54 1011.5
20260906034138 79 108 0.9 3.5 0.00 0.00 0.00 54 1011.6
20260906034038 79 106 0.9 3.5 0.00 0.00 0.00 54 1011.5
20260906033938 79 101 0.9 5.2 0.00 0.00 0.00 54 1011.4
20260906033837 79 98 0.9 5.2 0.00 0.00 0.00 54 1011.4
20260906033738 79 100 0.9 5.2 0.00 0.00 0.00 54 1011.4
20260906033638 79 100 0.9 6.1 0.00 0.00 0.00 54 1011.4
20260906033537 80 105 0.0 6.1 0.00 0.00 0.00 54 1011.4
20260906033437 80 108 0.9 6.1 0.00 0.00 0.00 54 1011.4
20260906033338 80 109 1.7 6.1 0.00 0.00 0.00 54 1011.4
20260906033237 80 114 1.7 6.1 0.00 0.00 0.00 53 1011.4
20260906033137 80 117 1.7 6.1 0.00 0.00 0.00 53 1011.4
20260906033037 80 119 1.7 6.1 0.00 0.00 0.00 53 1011.4
20260906032937 80 123 2.6 6.1 0.00 0.00 0.00 53 1011.3
20260906032837 80 126 1.7 6.1 0.00 0.00 0.00 53 1011.5
20260906032737 80 128 2.6 7.8 0.00 0.00 0.00 52 1011.4
20260906032636 80 130 3.5 7.8 0.00 0.00 0.00 52 1011.3
20260906032536 80 130 3.5 7.8 0.00 0.00 0.00 52 1011.3
20260906032437 80 130 3.5 7.8 0.00 0.00 0.00 51 1011.1
20260906032337 80 133 2.6 7.8 0.00 0.00 0.00 51 1011.3
20260906032236 80 133 2.6 8.7 0.00 0.00 0.00 52 1011.5
20260906032136 80 133 2.6 9.6 0.00 0.00 0.00 52 1011.3
20260906032036 80 133 3.5 9.6 0.00 0.00 0.00 50 1011.4
20260906031936 80 134 3.5 9.6 0.00 0.00 0.00 50 1011.3
20260906031836 80 135 3.5 9.6 0.00 0.00 0.00 49 1011.3
20260906031736 79 136 3.5 9.6 0.00 0.00 0.00 49 1011.3
20260906031636 79 137 3.5 9.6 0.00 0.00 0.00 48 1011.2
20260906031536 79 137 4.3 9.6 0.00 0.00 0.00 48 1011.2
20260906031436 79 137 6.1 9.6 0.00 0.00 0.00 47 1011.2
20260906031336 79 137 5.2 9.6 0.00 0.00 0.00 48 1011.3
20260906031236 79 137 6.1 9.6 0.00 0.00 0.00 48 1011.1
20260906031136 79 137 6.1 9.6 0.00 0.00 0.00 47 1011.3
20260906031036 79 137 3.5 9.6 0.00 0.00 0.00 47 1011.2
20260906030936 79 137 6.1 9.6 0.00 0.00 0.00 47 1011.2
20260906030836 79 137 3.5 9.6 0.00 0.00 0.00 48 1011.1
20260906030736 79 136 3.5 9.6 0.00 0.00 0.00 48 1011.3
20260906030636 79 135 5.2 9.6 0.00 0.00 0.00 48 1011.2
20260906030536 79 135 5.2 9.6 0.00 0.00 0.00 48 1011.2
20260906030436 79 135 6.1 9.6 0.00 0.00 0.00 48 1011.2
20260906030336 79 135 7.0 9.6 0.00 0.00 0.00 47 1011.1
20260906030235 79 135 7.0 9.6 0.00 0.00 0.00 47 1011.4
20260906030135 79 135 6.1 9.6 0.00 0.00 0.00 47 1011.1
20260906030036 79 137 7.0 9.6 0.00 0.00 0.00 47 1011.2
20260906025935 79 139 6.1 9.6 0.00 0.00 0.00 47 1011.4
20260906025835 79 141 6.1 9.6 0.00 0.00 0.00 48 1011.2
20260906025735 79 142 6.1 8.7 0.00 0.00 0.00 48 1011.2
20260906025635 79 142 6.1 8.7 0.00 0.00 0.00 48 1011.2
20260906025535 79 142 5.2 7.8 0.00 0.00 0.00 48 1011.2
20260906025435 79 143 5.2 7.8 0.00 0.00 0.00 48 1011.3
20260906025335 79 143 5.2 7.8 0.00 0.00 0.00 49 1011.4
20260906025235 79 143 5.2 7.0 0.00 0.00 0.00 48 1011.3
20260906025135 79 143 5.2 7.0 0.00 0.00 0.00 48 1011.2
20260906025035 79 141 4.3 7.0 0.00 0.00 0.00 49 1011.3
20260906024935 79 139 5.2 7.0 0.00 0.00 0.00 49 1011.5
20260906024835 79 135 4.3 7.0 0.00 0.00 0.00 49 1011.3
20260906024735 79 135 3.5 7.0 0.00 0.00 0.00 49 1011.3
20260906024635 79 135 3.5 6.1 0.00 0.00 0.00 50 1011.2
20260906024535 79 135 3.5 6.1 0.00 0.00 0.00 50 1011.3
20260906024435 79 135 3.5 6.1 0.00 0.00 0.00 50 1011.2
20260906024335 79 135 3.5 6.1 0.00 0.00 0.00 50 1011.2
20260906024235 79 135 3.5 6.1 0.00 0.00 0.00 50 1011.3
20260906024135 79 135 2.6 6.1 0.00 0.00 0.00 50 1011.4
20260906024035 79 135 3.5 6.1 0.00 0.00 0.00 50 1011.3
20260906023935 79 135 3.5 5.2 0.00 0.00 0.00 50 1011.3
20260906023835 79 135 2.6 4.3 0.00 0.00 0.00 51 1011.4
20260906023734 79 135 3.5 4.3 0.00 0.00 0.00 51 1011.3
20260906023635 79 137 2.6 4.3 0.00 0.00 0.00 51 1011.4
20260906023535 79 138 3.5 4.3 0.00 0.00 0.00 52 1011.4
20260906023435 79 139 2.6 4.3 0.00 0.00 0.00 52 1011.5
20260906023334 79 139 2.6 4.3 0.00 0.00 0.00 52 1011.3
20260906023234 79 139 2.6 3.5 0.00 0.00 0.00 52 1011.3
20260906023135 79 139 2.6 3.5 0.00 0.00 0.00 52 1011.5
20260906023035 79 142 2.6 3.5 0.00 0.00 0.00 52 1011.4
20260906022934 79 146 1.7 3.5 0.00 0.00 0.00 52 1011.3
20260906022834 79 150 2.6 3.5 0.00 0.00 0.00 52 1011.4
20260906022734 79 155 1.7 3.5 0.00 0.00 0.00 52 1011.3
20260906022634 79 157 1.7 3.5 0.00 0.00 0.00 52 1011.2
20260906022534 79 158 1.7 3.5 0.00 0.00 0.00 53 1011.2
20260906022434 79 160 1.7 3.5 0.00 0.00 0.00 53 1011.3
20260906022334 79 166 1.7 3.5 0.00 0.00 0.00 53 1011.2
20260906022234 79 168 1.7 3.5 0.00 0.00 0.00 53 1011.3
20260906022134 79 173 0.9 3.5 0.00 0.00 0.00 53 1011.3
20260906022034 79 173 0.9 3.5 0.00 0.00 0.00 52 1011.4
20260906021934 79 173 1.7 3.5 0.00 0.00 0.00 52 1011.4
20260906021834 79 173 1.7 3.5 0.00 0.00 0.00 52 1011.4
20260906021734 79 173 0.9 3.5 0.00 0.00 0.00 52 1011.3
20260906021634 79 172 0.9 3.5 0.00 0.00 0.00 52 1011.3
20260906021534 79 172 1.7 3.5 0.00 0.00 0.00 52 1011.3
20260906021433 79 176 1.7 3.5 0.00 0.00 0.00 52 1011.5
20260906021333 79 176 0.9 3.5 0.00 0.00 0.00 52 1011.2
20260906021233 79 180 0.9 3.5 0.00 0.00 0.00 52 1011.5
20260906021133 79 180 1.7 3.5 0.00 0.00 0.00 52 1011.5
20260906021033 78 180 0.9 3.5 0.00 0.00 0.00 52 1011.5
20260906020933 78 180 1.7 3.5 0.00 0.00 0.00 52 1011.6
20260906020833 78 180 0.9 1.7 0.00 0.00 0.00 52 1011.5
20260906020733 78 360 0.0 1.7 0.00 0.00 0.00 52 1011.6
20260906020632 78 360 0.0 1.7 0.00 0.00 0.00 53 1011.5
20260906020533 79 360 0.0 1.7 0.00 0.00 0.00 53 1011.5
20260906020432 79 360 0.0 1.7 0.00 0.00 0.00 53 1011.3
20260906020332 79 360 0.0 1.7 0.00 0.00 0.00 53 1011.3
20260906020232 79 360 0.0 1.7 0.00 0.00 0.00 52 1011.3
20260906020132 79 360 0.0 1.7 0.00 0.00 0.00 52 1011.2
20260906020032 79 360 0.0 2.6 0.00 0.00 0.00 52 1011.5
20260906015932 79 356 0.0 2.6 0.00 0.00 0.00 52 1011.2
20260906015831 79 348 0.0 2.6 0.00 0.00 0.00 52 1011.4
20260906015731 79 346 0.0 2.6 0.00 0.00 0.00 52 1011.4
20260906015631 79 345 0.0 2.6 0.00 0.00 0.00 52 1011.5
20260906015531 79 334 0.0 2.6 0.00 0.00 0.00 52 1011.5
20260906015431 79 329 0.0 2.6 0.00 0.00 0.00 52 1011.5
20260906015331 79 324 0.9 2.6 0.00 0.00 0.00 51 1011.3
20260906015231 79 335 0.0 2.6 0.00 0.00 0.00 51 1011.3
20260906015131 79 342 0.0 2.6 0.00 0.00 0.00 51 1011.4
20260906015031 80 336 0.9 2.6 0.00 0.00 0.00 51 1011.4
20260906014931 80 333 0.0 2.6 0.00 0.00 0.00 51 1011.6
20260906014831 80 343 0.0 2.6 0.00 0.00 0.00 51 1011.5
20260906014731 80 337 0.0 3.5 0.00 0.00 0.00 51 1011.3
20260906014630 80 332 0.0 3.5 0.00 0.00 0.00 50 1011.6
20260906014531 80 335 0.0 3.5 0.00 0.00 0.00 50 1011.4
20260906014431 80 333 0.0 3.5 0.00 0.00 0.00 50 1011.4
20260906014330 80 333 0.9 3.5 0.00 0.00 0.00 50 1011.4
20260906014230 80 330 0.9 3.5 0.00 0.00 0.00 51 1011.4
20260906014130 80 326 0.9 3.5 0.00 0.00 0.00 51 1011.5
20260906014030 80 319 0.9 3.5 0.00 0.00 0.00 50 1011.4
20260906013930 80 318 0.9 3.5 0.00 0.00 0.00 50 1011.5
20260906013830 79 314 0.9 3.5 0.00 0.00 0.00 50 1011.4
20260906013730 79 311 1.7 3.5 0.00 0.00 0.00 50 1011.5
20260906013630 79 315 0.9 3.5 0.00 0.00 0.00 51 1011.5
20260906013530 79 328 0.0 3.5 0.00 0.00 0.00 50 1011.6
20260906013430 79 344 0.0 3.5 0.00 0.00 0.00 50 1011.4
20260906013330 79 348 0.0 3.5 0.00 0.00 0.00 50 1011.5
20260906013230 79 349 0.0 3.5 0.00 0.00 0.00 50 1011.4
20260906013130 79 351 0.9 3.5 0.00 0.00 0.00 50 1011.6
20260906013030 79 3 1.7 3.5 0.00 0.00 0.00 51 1011.5
20260906012930 79 20 0.9 1.7 0.00 0.00 0.00 51 1011.2
20260906012829 79 15 0.0 1.7 0.00 0.00 0.00 51 1011.4
20260906012730 79 11 0.0 1.7 0.00 0.00 0.00 51 1011.5
20260906012630 79 353 0.0 1.7 0.00 0.00 0.00 51 1011.4
20260906012529 79 348 0.0 1.7 0.00 0.00 0.00 51 1011.5
20260906012430 79 346 0.0 1.7 0.00 0.00 0.00 51 1011.4
20260906012329 79 343 0.0 1.7 0.00 0.00 0.00 51 1011.5
20260906012229 79 341 0.0 1.7 0.00 0.00 0.00 51 1011.3
20260906012130 79 333 0.0 1.7 0.00 0.00 0.00 51 1011.5
20260906012029 79 346 0.9 1.7 0.00 0.00 0.00 51 1011.5
20260906011929 79 339 0.0 1.7 0.00 0.00 0.00 51 1011.6
20260906011829 79 303 0.0 1.7 0.00 0.00 0.00 51 1011.5
20260906011729 79 178 0.0 1.7 0.00 0.00 0.00 51 1011.6
20260906011629 79 134 0.0 3.5 0.00 0.00 0.00 50 1011.6
20260906011529 79 134 0.0 3.5 0.00 0.00 0.00 50 1011.3
20260906011429 79 137 0.0 3.5 0.00 0.00 0.00 50 1011.3
20260906011329 79 144 0.0 3.5 0.00 0.00 0.00 49 1011.5
20260906011229 78 148 0.0 3.5 0.00 0.00 0.00 49 1011.5
20260906011129 78 151 0.0 3.5 0.00 0.00 0.00 49 1011.4
20260906011029 78 151 0.0 3.5 0.00 0.00 0.00 49 1011.5
20260906010928 78 149 0.9 3.5 0.00 0.00 0.00 49 1011.6
20260906010828 78 146 0.9 3.5 0.00 0.00 0.00 50 1011.5
20260906010728 78 145 0.9 3.5 0.00 0.00 0.00 50 1011.4
20260906010628 77 156 1.7 3.5 0.00 0.00 0.00 52 1011.4
20260906010528 77 165 1.7 3.5 0.00 0.00 0.00 52 1011.5
20260906010428 77 180 1.7 2.6 0.00 0.00 0.00 52 1011.5
20260906010328 77 180 1.7 1.7 0.00 0.00 0.00 53 1011.7
20260906010228 77 180 0.9 1.7 0.00 0.00 0.00 54 1011.6
20260906010128 78 0 0.0 0.0 0.00 0.00 0.00 54 1011.5
20260906010028 78 90 0.0 1.7 0.00 0.00 0.00 54 1011.6
20260906005927 78 90 0.0 1.7 0.00 0.00 0.00 54 1011.8
20260906005828 78 86 0.0 3.5 0.00 0.00 0.00 53 1011.6
20260906005728 78 79 0.0 3.5 0.00 0.00 0.00 53 1011.6
20260906005627 78 71 0.0 3.5 0.00 0.00 0.00 52 1011.5
20260906005527 78 55 0.0 3.5 0.00 0.00 0.00 51 1011.5
20260906005427 78 59 0.0 3.5 0.00 0.00 0.00 51 1011.6
20260906005327 78 64 0.0 3.5 0.00 0.00 0.00 52 1011.5
20260906005227 79 67 0.0 3.5 0.00 0.00 0.00 52 1011.7
20260906005127 79 70 0.0 3.5 0.00 0.00 0.00 52 1011.5
20260906005027 79 68 0.0 3.5 0.00 0.00 0.00 52 1011.5
20260906004927 79 69 0.9 3.5 0.00 0.00 0.00 52 1011.5
20260906004827 79 70 1.7 3.5 0.00 0.00 0.00 52 1011.4
20260906004727 79 74 1.7 3.5 0.00 0.00 0.00 52 1011.5
20260906004627 79 79 0.9 3.5 0.00 0.00 0.00 52 1011.5
20260906004527 79 88 0.9 3.5 0.00 0.00 0.00 52 1011.5
20260906004426 79 88 1.7 3.5 0.00 0.00 0.00 52 1011.5
20260906004327 79 88 1.7 3.5 0.00 0.00 0.00 52 1011.5
20260906004226 80 87 0.9 3.5 0.00 0.00 0.00 52 1011.6
20260906004127 80 86 1.7 3.5 0.00 0.00 0.00 51 1011.5
20260906004027 80 85 1.7 3.5 0.00 0.00 0.00 51 1011.4
20260906003926 80 85 1.7 3.5 0.00 0.00 0.00 50 1011.4
20260906003826 80 85 1.7 3.5 0.00 0.00 0.00 50 1011.5
20260906003726 80 83 1.7 3.5 0.00 0.00 0.00 50 1011.5
20260906003626 80 78 1.7 3.5 0.00 0.00 0.00 50 1011.5
20260906003526 80 77 0.9 3.5 0.00 0.00 0.00 49 1011.5
20260906003426 80 77 0.9 3.5 0.00 0.00 0.00 49 1011.5
20260906003326 80 77 0.9 3.5 0.00 0.00 0.00 49 1011.5
20260906003226 80 77 0.9 3.5 0.00 0.00 0.00 49 1011.5
20260906003126 79 78 1.7 3.5 0.00 0.00 0.00 50 1011.5
20260906003026 79 81 1.7 3.5 0.00 0.00 0.00 50 1011.4
20260906002926 79 81 1.7 3.5 0.00 0.00 0.00 50 1011.5
20260906002825 79 79 1.7 3.5 0.00 0.00 0.00 50 1011.3
20260906002725 79 81 1.7 2.6 0.00 0.00 0.00 51 1011.3
20260906002626 79 89 1.7 2.6 0.00 0.00 0.00 51 1011.5
20260906002526 79 90 0.9 3.5 0.00 0.00 0.00 51 1011.2
20260906002426 79 90 1.7 3.5 0.00 0.00 0.00 51 1011.5
20260906002325 79 90 0.0 3.5 0.00 0.00 0.00 51 1011.1
20260906002225 79 90 0.0 3.5 0.00 0.00 0.00 51 1011.3
20260906002125 79 90 0.0 3.5 0.00 0.00 0.00 51 1011.3
20260906002025 79 90 0.0 3.5 0.00 0.00 0.00 52 1011.3
20260906001925 79 90 0.0 3.5 0.00 0.00 0.00 52 1011.4
20260906001825 79 90 0.0 3.5 0.00 0.00 0.00 52 1011.2
20260906001725 78 90 0.9 3.5 0.00 0.00 0.00 52 1011.1
20260906001625 78 90 0.9 3.5 0.00 0.00 0.00 53 1011.4
20260906001525 78 90 0.9 3.5 0.00 0.00 0.00 52 1011.4
20260906001425 78 90 0.9 1.7 0.00 0.00 0.00 52 1011.3
20260906001325 78 0 0.0 0.0 0.00 0.00 0.00 52 1011.2
20260906001225 78 0 0.0 0.0 0.00 0.00 0.00 52 1011.3
20260906001125 78 0 0.0 0.0 0.00 0.00 0.00 52 1011.4
20260906001024 78 0 0.0 0.0 0.00 0.00 0.00 52 1011.2
20260906000924 78 0 0.0 0.0 0.00 0.00 0.00 52 1011.4
20260906000824 78 0 0.0 0.0 0.00 0.00 0.00 51 1011.2
20260906000725 78 0 0.0 0.0 0.00 0.00 0.00 51 1011.3
20260906000624 78 0 0.0 0.0 0.00 0.00 0.00 51 1011.3
20260906000524 78 0 0.0 0.0 0.00 0.00 0.00 51 1011.4
20260906000425 78 0 0.0 0.0 0.00 0.00 0.00 51 1011.5
20260906000326 78 0 0.0 0.0 0.00 0.00 0.00 51 1011.3
20260906000226 78 0 0.0 0.0 0.00 0.00 0.00 51 1011.2
20260906000124 78 0 0.0 0.0 0.00 0.00 0.00 51 1011.3
20260906000024 78 0 0.0 0.0 0.00 0.00 0.00 51 1011.3
20260905235924 78 0 0.0 0.0 0.00 0.00 0.00 50 1011.3
20260905235824 78 0 0.0 0.0 0.00 0.00 0.00 51 1011.3
20260905235724 77 0 0.0 0.0 0.00 0.00 0.00 51 1011.5
20260905235624 77 0 0.0 0.0 0.00 0.00 0.00 52 1011.3
20260905235524 77 0 0.0 0.0 0.00 0.00 0.00 52 1011.4
20260905235424 77 0 0.0 0.0 0.00 0.00 0.00 52 1011.2
20260905235324 77 0 0.0 0.0 0.00 0.00 0.00 53 1011.5
20260905235242 77 0 0.0 0.0 0.00 0.00 0.00 53 1011.4
20260905235124 78 0 0.0 0.0 0.00 0.00 0.00 53 1011.3
20260905235023 78 0 0.0 0.0 0.00 0.00 0.00 53 1011.3
20260905234923 78 0 0.0 0.0 0.00 0.00 0.00 52 1011.5
20260905234824 78 0 0.0 0.0 0.00 0.00 0.00 52 1011.1
20260905234723 78 0 0.0 0.0 0.00 0.00 0.00 52 1011.4
20260905234623 78 0 0.0 0.0 0.00 0.00 0.00 52 1011.3
20260905234523 78 135 0.0 0.9 0.00 0.00 0.00 52 1011.3
20260905234423 78 135 0.0 0.9 0.00 0.00 0.00 52 1011.6
20260905234323 78 135 0.0 1.7 0.00 0.00 0.00 53 1011.4
20260905234223 78 135 0.0 1.7 0.00 0.00 0.00 53 1011.5
20260905234123 78 135 0.0 1.7 0.00 0.00 0.00 53 1011.4
20260905234023 78 132 0.0 1.7 0.00 0.00 0.00 53 1011.5
20260905233923 78 132 0.0 1.7 0.00 0.00 0.00 52 1011.3
20260905233823 78 132 0.0 1.7 0.00 0.00 0.00 52 1011.4
20260905233723 77 132 0.0 1.7 0.00 0.00 0.00 52 1011.6
20260905233623 77 132 0.0 1.7 0.00 0.00 0.00 52 1011.4
20260905233522 77 132 0.0 1.7 0.00 0.00 0.00 53 1011.4
20260905233422 77 131 0.0 1.7 0.00 0.00 0.00 53 1011.4
20260905233323 77 130 0.9 1.7 0.00 0.00 0.00 55 1011.2
20260905233223 77 127 0.9 1.7 0.00 0.00 0.00 55 1011.3
20260905233122 77 106 0.9 1.7 0.00 0.00 0.00 55 1011.2
20260905233023 77 90 0.0 0.9 0.00 0.00 0.00 55 1011.4
20260905232922 77 90 0.0 0.9 0.00 0.00 0.00 58 1011.2
20260905232822 78 90 0.0 1.7 0.00 0.00 0.00 58 1011.3
20260905232722 78 90 0.0 2.6 0.00 0.00 0.00 58 1011.3
20260905232622 78 90 0.0 2.6 0.00 0.00 0.00 58 1011.5
20260905232522 78 90 0.0 3.5 0.00 0.00 0.00 57 1011.4
20260905232422 78 90 0.0 3.5 0.00 0.00 0.00 57 1011.3
20260905232322 78 90 0.0 3.5 0.00 0.00 0.00 57 1011.4
20260905232222 78 90 0.0 3.5 0.00 0.00 0.00 56 1011.6
20260905232122 78 90 0.0 3.5 0.00 0.00 0.00 56 1011.4
20260905232022 78 90 0.0 3.5 0.00 0.00 0.00 56 1011.3
20260905231922 78 90 0.0 3.5 0.00 0.00 0.00 56 1011.2
20260905231822 78 90 0.9 3.5 0.00 0.00 0.00 55 1011.4
20260905231722 78 90 0.9 3.5 0.00 0.00 0.00 55 1011.4
20260905231622 78 90 0.9 3.5 0.00 0.00 0.00 55 1011.5
20260905231522 78 90 1.7 3.5 0.00 0.00 0.00 56 1011.4
20260905231422 78 90 1.7 3.5 0.00 0.00 0.00 56 1011.4
20260905231322 78 90 1.7 3.5 0.00 0.00 0.00 57 1011.5
20260905231221 78 90 0.9 3.5 0.00 0.00 0.00 57 1011.4
20260905231121 78 90 0.0 3.5 0.00 0.00 0.00 57 1011.4
20260905231021 78 90 0.0 3.5 0.00 0.00 0.00 57 1011.2
20260905230921 78 90 0.0 3.5 0.00 0.00 0.00 57 1011.5
20260905230821 78 90 0.9 3.5 0.00 0.00 0.00 57 1011.4
20260905230721 78 90 0.9 3.5 0.00 0.00 0.00 57 1011.5
20260905230621 78 88 0.9 3.5 0.00 0.00 0.00 57 1011.5
20260905230521 78 83 1.7 3.5 0.00 0.00 0.00 58 1011.5
20260905230421 78 79 0.9 3.5 0.00 0.00 0.00 58 1011.3
20260905230321 78 78 1.7 3.5 0.00 0.00 0.00 58 1011.5
20260905230221 78 76 1.7 3.5 0.00 0.00 0.00 58 1011.3
20260905230121 78 75 0.9 3.5 0.00 0.00 0.00 58 1011.3
20260905230021 78 75 0.9 3.5 0.00 0.00 0.00 58 1011.2
20260905225921 78 73 1.7 3.5 0.00 0.00 0.00 58 1011.3
20260905225821 78 71 1.7 3.5 0.00 0.00 0.00 58 1011.1
20260905225721 78 68 1.7 3.5 0.00 0.00 0.00 58 1011.4
20260905225621 78 67 1.7 3.5 0.00 0.00 0.00 57 1011.4
20260905225521 78 73 1.7 3.5 0.00 0.00 0.00 56 1011.5
20260905225421 77 80 1.7 2.6 0.00 0.00 0.00 55 1011.4
20260905225321 77 79 1.7 2.6 0.00 0.00 0.00 52 1011.2
20260905225221 77 90 1.7 2.6 0.00 0.00 0.00 52 1011.4
20260905225120 77 90 1.7 1.7 0.00 0.00 0.00 51 1011.4
20260905225020 77 90 0.0 1.7 0.00 0.00 0.00 52 1011.3
20260905224920 77 0 0.0 0.0 0.00 0.00 0.00 53 1011.3
20260905224820 77 0 0.0 0.0 0.00 0.00 0.00 52 1011.3
20260905224720 77 0 0.0 0.0 0.00 0.00 0.00 52 1011.4
20260905224620 77 0 0.0 0.0 0.00 0.00 0.00 52 1011.4
20260905224520 77 0 0.0 0.0 0.00 0.00 0.00 51 1011.5
20260905224420 77 0 0.0 0.0 0.00 0.00 0.00 51 1011.5
20260905224320 77 360 0.0 0.9 0.00 0.00 0.00 52 1011.3
20260905224220 77 360 0.0 0.9 0.00 0.00 0.00 52 1011.3
20260905224120 78 360 0.0 1.7 0.00 0.00 0.00 52 1011.3
20260905224020 78 360 0.0 1.7 0.00 0.00 0.00 50 1011.4
20260905223920 78 360 0.0 1.7 0.00 0.00 0.00 51 1011.3
20260905223820 78 360 0.0 1.7 0.00 0.00 0.00 52 1011.4
20260905223720 78 360 0.0 1.7 0.00 0.00 0.00 56 1011.4
20260905223620 78 360 0.0 2.6 0.00 0.00 0.00 56 1011.3
20260905223520 78 360 0.0 3.5 0.00 0.00 0.00 56 1011.3
20260905223420 78 360 0.0 3.5 0.00 0.00 0.00 56 1011.4
20260905223320 78 360 0.0 3.5 0.00 0.00 0.00 56 1011.5
20260905223220 78 360 0.0 3.5 0.00 0.00 0.00 56 1011.3
20260905223120 78 1 0.9 3.5 0.00 0.00 0.00 56 1011.5
20260905223020 78 7 0.0 3.5 0.00 0.00 0.00 56 1011.3
20260905222919 78 15 0.0 3.5 0.00 0.00 0.00 56 1011.1
20260905222820 79 24 0.0 3.5 0.00 0.00 0.00 56 1011.4
20260905222720 79 21 0.0 3.5 0.00 0.00 0.00 55 1011.3
20260905222620 79 22 0.9 3.5 0.00 0.00 0.00 55 1011.3
20260905222520 79 28 1.7 3.5 0.00 0.00 0.00 55 1011.2
20260905222419 79 29 1.7 3.5 0.00 0.00 0.00 55 1011.3
20260905222319 79 34 1.7 3.5 0.00 0.00 0.00 54 1011.4
20260905222219 79 40 1.7 3.5 0.00 0.00 0.00 54 1011.4
20260905222119 79 47 1.7 3.5 0.00 0.00 0.00 52 1011.2
20260905222019 79 44 1.7 3.5 0.00 0.00 0.00 52 1011.4
20260905221919 79 39 1.7 3.5 0.00 0.00 0.00 52 1011.3
20260905221819 80 33 1.7 3.5 0.00 0.00 0.00 55 1011.4
20260905221719 80 44 1.7 3.5 0.00 0.00 0.00 55 1011.4
20260905221619 80 51 1.7 3.5 0.00 0.00 0.00 53 1011.3
20260905221519 81 54 1.7 3.5 0.00 0.00 0.00 52 1011.4
20260905221419 81 67 1.7 3.5 0.00 0.00 0.00 52 1011.3
20260905221319 81 77 2.6 3.5 0.00 0.00 0.00 51 1011.3
20260905221219 81 90 0.9 1.7 0.00 0.00 0.00 48 1011.3
20260905221119 81 90 0.0 1.7 0.00 0.00 0.00 47 1011.3
20260905221018 82 90 0.0 1.7 0.00 0.00 0.00 47 1011.2
20260905220919 82 90 0.0 1.7 0.00 0.00 0.00 46 1011.4
20260905220818 82 90 0.9 1.7 0.00 0.00 0.00 47 1011.3
20260905220718 82 104 0.0 1.7 0.00 0.00 0.00 46 1011.3
20260905220618 82 100 0.0 2.6 0.00 0.00 0.00 45 1011.2
20260905220518 82 102 0.0 2.6 0.00 0.00 0.00 45 1011.2
20260905220418 82 110 0.0 2.6 0.00 0.00 0.00 44 1011.1
20260905220318 82 106 0.0 2.6 0.00 0.00 0.00 44 1011.3
20260905220218 83 107 0.0 2.6 0.00 0.00 0.00 44 1011.1
20260905220118 83 114 0.0 2.6 0.00 0.00 0.00 43 1011.2
20260905220021 83 111 0.0 2.6 0.00 0.00 0.00 43 1011.2
20260905215918 83 116 0.0 3.5 0.00 0.00 0.00 42 1011.1
20260905215818 83 121 0.9 3.5 0.00 0.00 0.00 42 1011.2
20260905215718 83 123 0.9 3.5 0.00 0.00 0.00 42 1010.9
20260905215618 82 127 0.9 3.5 0.00 0.00 0.00 42 1011.1
20260905215518 82 134 0.9 4.3 0.00 0.00 0.00 42 1011.2
20260905215418 82 134 0.9 4.3 0.00 0.00 0.00 42 1011.2
20260905215318 82 137 0.9 7.8 0.00 0.00 0.00 42 1011.2
20260905215218 82 137 1.7 7.8 0.00 0.00 0.00 42 1011.1
20260905215118 82 136 0.9 7.8 0.00 0.00 0.00 43 1011.1
20260905215018 82 140 1.7 7.8 0.00 0.00 0.00 43 1011.1
20260905214918 82 144 1.7 7.8 0.00 0.00 0.00 43 1011.2
20260905214818 82 143 1.7 7.8 0.00 0.00 0.00 43 1010.9
20260905214718 82 143 1.7 7.8 0.00 0.00 0.00 44 1011.1
20260905214618 82 148 2.6 7.8 0.00 0.00 0.00 43 1011.2
20260905214518 82 147 2.6 7.8 0.00 0.00 0.00 43 1011.3
20260905214418 82 146 2.6 7.8 0.00 0.00 0.00 44 1011.1
20260905214317 82 146 4.3 7.8 0.00 0.00 0.00 44 1011.1
20260905214218 82 146 4.3 7.8 0.00 0.00 0.00 44 1011.1
20260905214117 82 150 3.5 7.8 0.00 0.00 0.00 44 1011.1
20260905214018 82 148 3.5 9.6 0.00 0.00 0.00 45 1011.1
20260905213918 82 145 4.3 9.6 0.00 0.00 0.00 45 1011.2
20260905213817 82 145 5.2 9.6 0.00 0.00 0.00 45 1011.0
20260905213718 82 150 4.3 9.6 0.00 0.00 0.00 45 1011.1
20260905213617 82 149 5.2 9.6 0.00 0.00 0.00 45 1011.1
20260905213517 82 148 5.2 9.6 0.00 0.00 0.00 46 1011.1
20260905213417 82 148 4.3 9.6 0.00 0.00 0.00 45 1011.1
20260905213317 82 150 4.3 9.6 0.00 0.00 0.00 46 1011.1
20260905213218 82 152 5.2 9.6 0.00 0.00 0.00 46 1011.2
20260905213118 82 150 4.3 9.6 0.00 0.00 0.00 45 1010.9
20260905213018 82 152 5.2 9.6 0.00 0.00 0.00 46 1011.0
20260905212917 82 152 4.3 9.6 0.00 0.00 0.00 45 1010.9
20260905212818 82 151 3.5 9.6 0.00 0.00 0.00 45 1011.0
20260905212718 82 147 3.5 9.6 0.00 0.00 0.00 44 1011.0
20260905212618 82 149 5.2 9.6 0.00 0.00 0.00 45 1011.0
20260905212517 82 150 6.1 9.6 0.00 0.00 0.00 45 1010.9
20260905212417 82 154 4.3 9.6 0.00 0.00 0.00 45 1011.1
20260905212317 82 153 5.2 9.6 0.00 0.00 0.00 45 1010.9
20260905212217 82 151 5.2 9.6 0.00 0.00 0.00 45 1010.9
20260905212117 82 150 6.1 9.6 0.00 0.00 0.00 46 1011.0
20260905212017 82 147 6.1 9.6 0.00 0.00 0.00 45 1011.0
20260905211917 82 148 6.1 9.6 0.00 0.00 0.00 45 1011.0
20260905211818 82 148 5.2 9.6 0.00 0.00 0.00 46 1010.9
20260905211717 82 147 6.1 8.7 0.00 0.00 0.00 45 1011.1
20260905211617 82 142 6.1 7.8 0.00 0.00 0.00 45 1010.8
20260905211517 82 139 4.3 7.8 0.00 0.00 0.00 44 1010.8
20260905211417 82 136 4.3 7.8 0.00 0.00 0.00 44 1010.8
20260905211317 82 137 4.3 7.8 0.00 0.00 0.00 44 1011.1
20260905211217 82 138 4.3 7.8 0.00 0.00 0.00 45 1010.9
20260905211117 82 138 4.3 7.8 0.00 0.00 0.00 45 1011.0
20260905211017 82 138 4.3 7.8 0.00 0.00 0.00 46 1010.9
20260905210917 82 139 4.3 7.8 0.00 0.00 0.00 46 1011.0
20260905210817 82 141 5.2 7.8 0.00 0.00 0.00 46 1011.0
20260905210717 82 144 4.3 7.8 0.00 0.00 0.00 45 1010.9
20260905210617 83 147 4.3 7.8 0.00 0.00 0.00 44 1011.0
20260905210517 83 150 5.2 7.8 0.00 0.00 0.00 45 1011.0
20260905210417 83 154 5.2 7.0 0.00 0.00 0.00 44 1011.2
20260905210317 83 155 4.3 7.0 0.00 0.00 0.00 44 1011.2
20260905210217 83 159 4.3 7.0 0.00 0.00 0.00 44 1010.9
20260905210117 83 166 3.5 6.1 0.00 0.00 0.00 43 1011.1
20260905210017 82 175 3.5 6.1 0.00 0.00 0.00 43 1011.0
20260905205917 82 180 2.6 3.5 0.00 0.00 0.00 43 1011.1
20260905205817 82 180 1.7 3.5 0.00 0.00 0.00 44 1011.1
20260905205717 82 180 1.7 3.5 0.00 0.00 0.00 44 1011.2
20260905205617 81 180 0.9 1.7 0.00 0.00 0.00 44 1010.9
20260905205517 81 180 0.9 1.7 0.00 0.00 0.00 44 1011.0
20260905205417 81 180 0.9 1.7 0.00 0.00 0.00 45 1011.0
20260905205317 81 180 0.9 1.7 0.00 0.00 0.00 45 1010.9
20260905205217 81 180 0.9 1.7 0.00 0.00 0.00 46 1011.0
20260905205117 81 176 0.0 1.7 0.00 0.00 0.00 47 1010.9
20260905205017 81 142 0.0 1.7 0.00 0.00 0.00 47 1011.3
20260905204917 81 90 0.0 1.7 0.00 0.00 0.00 47 1011.1
20260905204817 81 90 0.0 1.7 0.00 0.00 0.00 47 1011.0
20260905204717 81 90 0.0 1.7 0.00 0.00 0.00 48 1011.1
20260905204617 81 90 0.0 1.7 0.00 0.00 0.00 49 1010.9
20260905204517 81 90 0.0 1.7 0.00 0.00 0.00 48 1011.0
20260905204417 81 90 0.0 1.7 0.00 0.00 0.00 50 1011.1
20260905204317 81 90 0.0 1.7 0.00 0.00 0.00 49 1011.1
20260905204217 81 90 0.0 1.7 0.00 0.00 0.00 52 1011.0
20260905204117 81 90 0.0 1.7 0.00 0.00 0.00 53 1011.0
20260905204017 81 90 0.9 2.6 0.00 0.00 0.00 54 1010.9
20260905203917 81 71 0.0 3.5 0.00 0.00 0.00 55 1011.0
20260905203817 81 65 0.0 3.5 0.00 0.00 0.00 55 1011.1
20260905203717 81 66 0.0 3.5 0.00 0.00 0.00 55 1011.1
20260905203617 81 69 0.0 3.5 0.00 0.00 0.00 55 1011.2
20260905203517 81 72 0.0 3.5 0.00 0.00 0.00 54 1011.0
20260905203417 81 75 0.0 3.5 0.00 0.00 0.00 55 1011.1
20260905203317 82 76 0.0 3.5 0.00 0.00 0.00 54 1011.2
20260905203217 82 78 0.9 3.5 0.00 0.00 0.00 55 1011.0
20260905203117 82 78 0.9 3.5 0.00 0.00 0.00 55 1011.0
20260905203017 82 76 1.7 3.5 0.00 0.00 0.00 55 1011.1
20260905202917 82 85 0.0 2.6 0.00 0.00 0.00 55 1011.1
20260905202817 82 90 0.0 2.6 0.00 0.00 0.00 54 1011.1
20260905202717 82 90 0.0 2.6 0.00 0.00 0.00 54 1011.0
20260905202617 82 92 0.9 2.6 0.00 0.00 0.00 53 1011.1
20260905202517 82 103 1.7 3.5 0.00 0.00 0.00 52 1011.0
20260905202417 82 120 0.9 3.5 0.00 0.00 0.00 51 1010.9
20260905202317 83 129 0.9 3.5 0.00 0.00 0.00 50 1011.2
20260905202217 83 134 0.0 3.5 0.00 0.00 0.00 47 1011.0
20260905202117 83 137 0.0 3.5 0.00 0.00 0.00 46 1011.0
20260905202017 83 147 0.0 5.2 0.00 0.00 0.00 46 1011.2
20260905201917 83 145 0.0 6.1 0.00 0.00 0.00 46 1011.1
20260905201817 83 146 0.9 6.1 0.00 0.00 0.00 45 1011.1
20260905201717 83 150 0.9 6.1 0.00 0.00 0.00 45 1011.1
20260905201617 83 149 0.9 7.0 0.00 0.00 0.00 44 1011.2
20260905201517 83 145 1.7 7.0 0.00 0.00 0.00 44 1011.1
20260905201417 82 142 1.7 7.0 0.00 0.00 0.00 44 1011.2
20260905201317 82 143 2.6 7.0 0.00 0.00 0.00 44 1011.2
20260905201217 82 142 2.6 7.0 0.00 0.00 0.00 45 1011.1
20260905201117 82 143 2.6 7.0 0.00 0.00 0.00 45 1011.0
20260905201017 82 139 3.5 7.0 0.00 0.00 0.00 45 1010.9
20260905200917 82 139 3.5 7.0 0.00 0.00 0.00 45 1011.0
20260905200817 82 139 3.5 7.0 0.00 0.00 0.00 45 1011.1
20260905200717 82 135 3.5 7.0 0.00 0.00 0.00 45 1011.1
20260905200617 82 135 3.5 5.2 0.00 0.00 0.00 45 1010.9
20260905200517 82 135 3.5 5.2 0.00 0.00 0.00 45 1011.1
20260905200417 82 135 2.6 4.3 0.00 0.00 0.00 46 1011.1
20260905200317 81 135 2.6 4.3 0.00 0.00 0.00 46 1011.2
20260905200216 81 135 1.7 1.7 0.00 0.00 0.00 48 1011.1
20260905200117 81 135 0.9 1.7 0.00 0.00 0.00 48 1011.0
20260905200017 81 0 0.0 0.0 0.00 0.00 0.00 49 1011.1
20260905195917 81 0 0.0 0.0 0.00 0.00 0.00 49 1011.2
20260905195816 81 0 0.0 0.0 0.00 0.00 0.00 50 1011.1
20260905195717 81 0 0.0 0.0 0.00 0.00 0.00 50 1011.0
20260905195616 81 0 0.0 0.0 0.00 0.00 0.00 49 1011.1
20260905195516 81 0 0.0 0.0 0.00 0.00 0.00 49 1011.2
20260905195417 81 0 0.0 0.0 0.00 0.00 0.00 50 1011.1
20260905195316 81 0 0.0 0.0 0.00 0.00 0.00 50 1011.0
20260905195216 81 0 0.0 0.0 0.00 0.00 0.00 51 1011.0
20260905195116 81 0 0.0 0.0 0.00 0.00 0.00 52 1010.9
20260905195016 81 0 0.0 0.0 0.00 0.00 0.00 53 1011.0
20260905194916 81 0 0.0 0.0 0.00 0.00 0.00 52 1010.9
20260905194816 81 0 0.0 0.0 0.00 0.00 0.00 52 1010.8
20260905194716 81 180 0.0 1.7 0.00 0.00 0.00 53 1011.0
20260905194618 81 180 0.0 1.7 0.00 0.00 0.00 53 1011.0
20260905194520 81 180 0.0 1.7 0.00 0.00 0.00 53 1011.0
20260905194420 81 171 0.0 1.7 0.00 0.00 0.00 53 1011.0
20260905194320 81 159 0.0 2.6 0.00 0.00 0.00 53 1011.1
20260905194220 81 159 0.0 2.6 0.00 0.00 0.00 53 1011.2
20260905194120 81 162 0.0 2.6 0.00 0.00 0.00 52 1011.1
20260905194020 81 164 0.0 2.6 0.00 0.00 0.00 51 1011.0
20260905193920 81 166 0.0 2.6 0.00 0.00 0.00 51 1011.1
20260905193820 81 165 0.0 2.6 0.00 0.00 0.00 52 1011.1
20260905193720 81 164 0.0 2.6 0.00 0.00 0.00 53 1011.1
20260905193620 81 163 0.9 2.6 0.00 0.00 0.00 53 1011.2
20260905193520 81 159 0.9 2.6 0.00 0.00 0.00 53 1011.0
20260905193420 81 161 0.9 2.6 0.00 0.00 0.00 54 1011.1
20260905193320 81 180 1.7 2.6 0.00 0.00 0.00 54 1011.2
20260905193220 81 199 0.9 2.6 0.00 0.00 0.00 54 1011.0
20260905193120 81 216 0.9 1.7 0.00 0.00 0.00 54 1011.1
20260905193020 81 38 0.9 1.7 0.00 0.00 0.00 54 1011.2
20260905192919 81 41 0.0 1.7 0.00 0.00 0.00 54 1011.2
20260905192820 81 66 0.0 2.6 0.00 0.00 0.00 53 1011.2
20260905192720 81 71 0.0 2.6 0.00 0.00 0.00 53 1011.4
20260905192619 81 63 0.0 2.6 0.00 0.00 0.00 53 1011.2
20260905192519 82 64 0.0 2.6 0.00 0.00 0.00 53 1011.1
20260905192419 82 60 0.0 2.6 0.00 0.00 0.00 52 1011.2
20260905192319 82 63 0.0 2.6 0.00 0.00 0.00 52 1011.1
20260905192220 82 60 0.0 2.6 0.00 0.00 0.00 53 1011.0
20260905192119 82 58 0.0 2.6 0.00 0.00 0.00 53 1011.1
20260905192019 82 53 0.9 2.6 0.00 0.00 0.00 53 1010.9
20260905191919 82 47 0.0 2.6 0.00 0.00 0.00 52 1011.0
20260905191819 81 32 0.9 2.6 0.00 0.00 0.00 52 1011.1
20260905191718 81 10 0.0 1.7 0.00 0.00 0.00 52 1011.1
20260905191618 81 13 0.0 1.7 0.00 0.00 0.00 52 1011.1
20260905191517 81 14 0.9 1.7 0.00 0.00 0.00 52 1011.3
20260905191418 81 23 0.0 1.7 0.00 0.00 0.00 52 1011.1
20260905191317 81 34 0.0 1.7 0.00 0.00 0.00 52 1011.1
20260905191217 81 69 0.0 1.7 0.00 0.00 0.00 53 1011.2
20260905191117 81 90 0.0 0.9 0.00 0.00 0.00 53 1011.1
20260905191016 81 90 0.0 0.9 0.00 0.00 0.00 54 1010.9
20260905190916 81 90 0.0 0.9 0.00 0.00 0.00 54 1010.9
20260905190815 81 90 0.0 0.9 0.00 0.00 0.00 55 1011.0
20260905190715 81 180 0.0 0.9 0.00 0.00 0.00 55 1010.9
20260905190615 81 180 0.0 0.9 0.00 0.00 0.00 56 1011.1
20260905190514 81 180 0.0 0.9 0.00 0.00 0.00 55 1011.1
20260905190414 81 180 0.0 0.9 0.00 0.00 0.00 55 1011.0
20260905190314 81 180 0.0 0.9 0.00 0.00 0.00 55 1011.3
20260905190214 81 220 0.0 1.7 0.00 0.00 0.00 57 1011.1
20260905190114 81 249 0.0 1.7 0.00 0.00 0.00 57 1010.9
20260905190014 81 246 0.0 1.7 0.00 0.00 0.00 58 1011.1
20260905185914 81 246 0.0 1.7 0.00 0.00 0.00 58 1011.1
20260905185814 81 246 0.0 1.7 0.00 0.00 0.00 60 1011.0
20260905185714 80 257 0.0 1.7 0.00 0.00 0.00 61 1011.2
20260905185614 80 257 0.0 1.7 0.00 0.00 0.00 61 1011.1
20260905185514 80 257 0.0 1.7 0.00 0.00 0.00 61 1010.9
20260905185414 80 257 0.0 1.7 0.00 0.00 0.00 61 1011.1
20260905185314 80 260 0.0 1.7 0.00 0.00 0.00 60 1010.9
20260905185214 80 270 0.9 1.7 0.00 0.00 0.00 60 1011.0
20260905185114 80 90 0.0 1.7 0.00 0.00 0.00 60 1011.0
20260905185014 81 0 0.0 0.0 0.00 0.00 0.00 59 1011.1
20260905184914 81 0 0.0 0.0 0.00 0.00 0.00 59 1011.0
20260905184814 81 0 0.0 0.0 0.00 0.00 0.00 59 1010.8
20260905184714 81 0 0.0 0.0 0.00 0.00 0.00 59 1010.8
20260905184614 81 0 0.0 0.0 0.00 0.00 0.00 60 1011.1
20260905184514 81 0 0.0 0.0 0.00 0.00 0.00 60 1011.0
20260905184414 81 0 0.0 0.0 0.00 0.00 0.00 60 1011.2
20260905184314 81 270 0.0 1.7 0.00 0.00 0.00 61 1010.9
20260905184214 82 270 0.0 1.7 0.00 0.00 0.00 61 1010.8
20260905184114 82 242 0.0 1.7 0.00 0.00 0.00 61 1010.9
20260905184014 82 226 0.0 1.7 0.00 0.00 0.00 60 1011.0
20260905183914 82 226 0.0 1.7 0.00 0.00 0.00 60 1010.8
20260905183814 82 226 0.0 1.7 0.00 0.00 0.00 60 1011.0
20260905183714 82 226 0.0 1.7 0.00 0.00 0.00 60 1010.9
20260905183614 82 233 0.0 1.7 0.00 0.00 0.00 60 1010.8
20260905183514 82 238 0.0 1.7 0.00 0.00 0.00 60 1010.8
20260905183414 82 238 0.0 1.7 0.00 0.00 0.00 59 1010.8
20260905183314 82 228 0.0 1.7 0.00 0.00 0.00 59 1010.7
20260905183214 82 203 0.0 1.7 0.00 0.00 0.00 59 1010.7
20260905183114 82 194 0.0 2.6 0.00 0.00 0.00 59 1010.7
20260905183014 82 193 0.0 2.6 0.00 0.00 0.00 60 1010.8
20260905182914 82 190 0.0 2.6 0.00 0.00 0.00 60 1010.9
20260905182814 82 188 0.0 2.6 0.00 0.00 0.00 61 1010.7
20260905182714 82 187 0.0 2.6 0.00 0.00 0.00 61 1010.8
20260905182614 82 183 0.0 2.6 0.00 0.00 0.00 60 1010.8
20260905182514 82 180 0.0 2.6 0.00 0.00 0.00 60 1010.7
20260905182414 82 180 0.0 2.6 0.00 0.00 0.00 60 1010.7
20260905182314 82 180 0.0 2.6 0.00 0.00 0.00 60 1010.7
20260905182214 82 180 0.9 2.6 0.00 0.00 0.00 60 1010.8
20260905182114 82 180 0.9 1.7 0.00 0.00 0.00 60 1010.7
20260905182014 82 180 0.9 1.7 0.00 0.00 0.00 60 1010.8
20260905181914 82 180 0.9 1.7 0.00 0.00 0.00 61 1010.6
20260905181814 82 180 0.9 1.7 0.00 0.00 0.00 61 1010.6
20260905181714 82 180 0.0 1.7 0.00 0.00 0.00 62 1010.9
20260905181614 82 180 0.9 1.7 0.00 0.00 0.00 62 1010.7
20260905181514 81 180 0.9 1.7 0.00 0.00 0.00 63 1010.7
20260905181414 81 180 0.0 1.7 0.00 0.00 0.00 63 1010.8
20260905181314 81 180 0.0 1.7 0.00 0.00 0.00 63 1010.8
20260905181214 81 180 0.0 1.7 0.00 0.00 0.00 64 1010.7
20260905181114 81 180 0.0 1.7 0.00 0.00 0.00 64 1010.6
20260905181014 81 180 0.0 1.7 0.00 0.00 0.00 65 1010.6
20260905180914 81 180 0.0 1.7 0.00 0.00 0.00 65 1010.6
20260905180814 81 185 0.0 1.7 0.00 0.00 0.00 65 1010.8
20260905180714 81 186 0.9 1.7 0.00 0.00 0.00 65 1010.8
20260905180614 80 186 1.7 1.7 0.00 0.00 0.00 66 1010.4
20260905180514 80 193 1.7 1.7 0.00 0.00 0.00 66 1010.6
20260905180414 80 209 0.9 1.7 0.00 0.00 0.00 67 1010.5
20260905180314 80 208 0.9 2.6 0.00 0.00 0.00 67 1010.6
20260905180214 80 209 0.0 2.6 0.00 0.00 0.00 68 1010.6
20260905180114 80 211 0.0 2.6 0.00 0.00 0.00 68 1010.7
20260905180014 80 214 0.0 2.6 0.00 0.00 0.00 68 1010.6
20260905175914 80 207 0.0 3.5 0.00 0.00 0.00 68 1010.6
20260905175814 80 201 0.0 3.5 0.00 0.00 0.00 68 1010.6
20260905175714 80 216 0.0 3.5 0.00 0.00 0.00 68 1010.6
20260905175614 80 229 0.9 3.5 0.00 0.00 0.00 68 1010.5
20260905175514 80 232 0.9 3.5 0.00 0.00 0.00 68 1010.4
20260905175414 80 232 1.7 3.5 0.00 0.00 0.00 68 1010.5
20260905175314 80 247 1.7 3.5 0.00 0.00 0.00 68 1010.4
20260905175214 80 257 1.7 3.5 0.00 0.00 0.00 68 1010.5
20260905175114 80 266 0.9 3.5 0.00 0.00 0.00 68 1010.6
20260905175014 80 270 0.9 3.5 0.00 0.00 0.00 68 1010.5
20260905174914 80 270 0.9 3.5 0.00 0.00 0.00 68 1010.3
20260905174814 80 270 1.7 3.5 0.00 0.00 0.00 68 1010.3
20260905174714 80 270 1.7 3.5 0.00 0.00 0.00 68 1010.4
20260905174614 80 270 0.9 3.5 0.00 0.00 0.00 67 1010.3
20260905174514 80 270 0.9 3.5 0.00 0.00 0.00 67 1010.5
20260905174414 80 270 1.7 3.5 0.00 0.00 0.00 68 1010.5
20260905174314 80 270 0.0 3.5 0.00 0.00 0.00 68 1010.5
20260905174214 80 270 1.7 3.5 0.00 0.00 0.00 68 1010.4
20260905174114 80 268 0.9 3.5 0.00 0.00 0.00 68 1010.4
20260905174014 80 264 1.7 3.5 0.00 0.00 0.00 69 1010.3
20260905173914 80 258 0.9 3.5 0.00 0.00 0.00 69 1010.4
20260905173814 80 258 1.7 3.5 0.00 0.00 0.00 69 1010.4
20260905173714 81 257 1.7 3.5 0.00 0.00 0.00 69 1010.5
20260905173614 81 257 1.7 3.5 0.00 0.00 0.00 69 1010.2
20260905173514 81 256 1.7 3.5 0.00 0.00 0.00 69 1010.5
20260905173414 81 258 1.7 3.5 0.00 0.00 0.00 68 1010.5
20260905173314 81 259 1.7 3.5 0.00 0.00 0.00 68 1010.4
20260905173214 81 257 1.7 3.5 0.00 0.00 0.00 68 1010.2
20260905173114 81 265 0.9 2.6 0.00 0.00 0.00 68 1010.2
20260905173014 81 314 0.9 2.6 0.00 0.00 0.00 68 1010.4
20260905172914 81 345 0.0 2.6 0.00 0.00 0.00 68 1010.3
20260905172814 81 355 0.0 2.6 0.00 0.00 0.00 68 1010.3
20260905172714 81 357 0.0 2.6 0.00 0.00 0.00 68 1010.2
20260905172614 81 357 0.0 2.6 0.00 0.00 0.00 68 1010.4
20260905172514 82 357 0.0 2.6 0.00 0.00 0.00 68 1010.5
20260905172414 82 358 0.9 2.6 0.00 0.00 0.00 67 1010.1
20260905172314 82 359 0.0 2.6 0.00 0.00 0.00 67 1010.0
20260905172214 82 360 0.0 2.6 0.00 0.00 0.00 66 1010.2
20260905172114 82 360 0.0 2.6 0.00 0.00 0.00 66 1010.1
20260905172013 83 360 1.7 2.6 0.00 0.00 0.00 65 1010.3
20260905171914 83 359 1.7 4.3 0.00 0.00 0.00 65 1010.3
20260905171814 83 353 1.7 4.3 0.00 0.00 0.00 65 1010.3
20260905171714 83 348 1.7 4.3 0.00 0.00 0.00 65 1010.2
20260905171614 83 347 1.7 4.3 0.00 0.00 0.00 65 1010.3
20260905171514 83 349 1.7 6.1 0.00 0.00 0.00 65 1010.4
20260905171414 83 349 1.7 6.1 0.00 0.00 0.00 65 1010.1
20260905171314 83 344 1.7 6.1 0.00 0.00 0.00 65 1010.2
20260905171214 83 335 1.7 6.1 0.00 0.00 0.00 65 1010.1
20260905171114 83 332 1.7 7.0 0.00 0.00 0.00 65 1010.3
20260905171014 83 334 1.7 7.0 0.00 0.00 0.00 65 1010.1
20260905170914 83 334 1.7 7.0 0.00 0.00 0.00 65 1010.1
20260905170814 83 343 1.7 7.0 0.00 0.00 0.00 64 1010.1
20260905170714 83 333 1.7 11.3 0.00 0.00 0.00 64 1010.1
20260905170614 83 329 3.5 11.3 0.00 0.00 0.00 63 1010.2
20260905170513 84 318 1.7 11.3 0.00 0.00 0.00 63 1010.1
20260905170414 84 321 1.7 11.3 0.00 0.00 0.00 63 1010.2
20260905170314 84 326 3.5 11.3 0.00 0.00 0.00 63 1010.2
20260905170213 84 337 3.5 11.3 0.00 0.00 0.00 63 1010.2
20260905170114 84 346 3.5 11.3 0.00 0.00 0.00 62 1010.1
20260905170014 84 347 2.6 11.3 0.00 0.00 0.00 62 1010.0
20260905165914 84 343 2.6 11.3 0.00 0.00 0.00 62 1010.1
20260905165813 85 328 3.5 11.3 0.00 0.00 0.00 62 1010.2
20260905165714 85 343 3.5 10.4 0.00 0.00 0.00 61 1010.0
20260905165614 86 348 3.5 10.4 0.00 0.00 0.00 61 1010.0
20260905165513 86 356 3.5 10.4 0.00 0.00 0.00 61 1010.0
20260905165414 86 357 2.6 10.4 0.00 0.00 0.00 60 1010.0
20260905165314 86 354 1.7 10.4 0.00 0.00 0.00 60 1010.1
20260905165214 86 344 3.5 10.4 0.00 0.00 0.00 59 1010.1
20260905165114 86 337 1.7 10.4 0.00 0.00 0.00 59 1010.0
20260905165014 87 333 1.7 10.4 0.00 0.00 0.00 58 1009.8
20260905164914 87 335 4.3 10.4 0.00 0.00 0.00 58 1009.9
20260905164814 87 346 1.7 5.2 0.00 0.00 0.00 57 1009.9
20260905164714 87 336 1.7 6.1 0.00 0.00 0.00 57 1009.9
20260905164614 89 335 1.7 6.1 0.00 0.00 0.00 57 1009.8
20260905164514 89 336 1.7 6.1 0.00 0.00 0.00 57 1009.9
20260905164414 89 336 1.7 6.1 0.00 0.00 0.00 57 1009.7
20260905164314 89 340 1.7 6.1 0.00 0.00 0.00 56 1009.7
20260905164213 89 348 1.7 6.1 0.00 0.00 0.00 55 1009.7
20260905164114 89 354 1.7 6.1 0.00 0.00 0.00 52 1009.9
20260905164014 89 353 0.9 6.1 0.00 0.00 0.00 47 1009.9
20260905163914 89 349 0.9 6.1 0.00 0.00 0.00 39 1009.6
20260905163813 89 350 1.7 6.1 0.00 0.00 0.00 39 1009.8
20260905163714 89 358 0.9 5.2 0.00 0.00 0.00 39 1009.8
20260905163614 89 355 0.9 5.2 0.00 0.00 0.00 39 1009.9
20260905163513 89 352 1.7 5.2 0.00 0.00 0.00 39 1009.8
20260905163414 89 344 1.7 5.2 0.00 0.00 0.00 39 1009.7
20260905163313 89 335 1.7 5.2 0.00 0.00 0.00 39 1009.7
20260905163220 89 322 1.7 5.2 0.00 0.00 0.00 39 1009.6
20260905163114 89 307 1.7 5.2 0.00 0.00 0.00 40 1009.7
20260905163014 89 310 1.7 3.5 0.00 0.00 0.00 41 1009.6
20260905162913 89 302 1.7 3.5 0.00 0.00 0.00 45 1009.6
20260905162813 89 296 0.9 3.5 0.00 0.00 0.00 42 1009.6
20260905162714 89 299 0.0 3.5 0.00 0.00 0.00 52 1009.6
20260905162614 89 299 0.9 3.5 0.00 0.00 0.00 51 1009.7
20260905162514 90 310 0.9 3.5 0.00 0.00 0.00 50 1009.6
20260905162413 90 327 0.9 3.5 0.00 0.00 0.00 52 1009.5
20260905162314 90 341 1.7 3.5 0.00 0.00 0.00 52 1009.8
20260905162213 90 354 0.9 3.5 0.00 0.00 0.00 50 1009.7
20260905162113 90 349 0.0 3.5 0.00 0.00 0.00 51 1009.7
20260905162013 90 350 0.0 3.5 0.00 0.00 0.00 52 1009.5
20260905161914 90 9 0.9 4.3 0.00 0.00 0.00 52 1009.7
20260905161813 89 12 0.0 4.3 0.00 0.00 0.00 52 1009.5
20260905161713 89 15 0.0 4.3 0.00 0.00 0.00 52 1009.7
20260905161614 89 21 0.0 7.8 0.00 0.00 0.00 52 1009.5
20260905161514 89 7 1.7 7.8 0.00 0.00 0.00 50 1009.7
20260905161413 89 6 1.7 7.8 0.00 0.00 0.00 52 1009.7
20260905161313 89 6 0.0 7.8 0.00 0.00 0.00 51 1009.6
20260905161213 89 14 0.9 7.8 0.00 0.00 0.00 50 1009.5
20260905161113 90 16 0.9 8.7 0.00 0.00 0.00 51 1009.6
20260905161013 90 13 2.6 8.7 0.00 0.00 0.00 52 1009.5
20260905160913 90 11 0.9 8.7 0.00 0.00 0.00 49 1009.7
20260905160814 90 13 0.9 8.7 0.00 0.00 0.00 49 1009.6
20260905160713 90 19 1.7 9.6 0.00 0.00 0.00 49 1009.7
20260905160614 90 21 1.7 9.6 0.00 0.00 0.00 48 1009.7
20260905160513 91 27 3.5 9.6 0.00 0.00 0.00 48 1009.6
20260905160413 91 33 2.6 9.6 0.00 0.00 0.00 48 1009.6
20260905160313 91 34 1.7 10.4 0.00 0.00 0.00 48 1009.5
20260905160213 92 32 5.2 10.4 0.00 0.00 0.00 47 1009.6
20260905160113 92 32 1.7 10.4 0.00 0.00 0.00 41 1009.6
20260905160014 92 34 3.5 10.4 0.00 0.00 0.00 38 1009.7
20260905155913 92 32 3.5 10.4 0.00 0.00 0.00 36 1009.6
20260905155813 92 32 6.1 10.4 0.00 0.00 0.00 38 1009.6
20260905155713 92 29 3.5 10.4 0.00 0.00 0.00 36 1009.6
20260905155613 92 23 1.7 10.4 0.00 0.00 0.00 35 1009.5
20260905155513 92 22 1.7 10.4 0.00 0.00 0.00 35 1009.5
20260905155414 93 19 1.7 10.4 0.00 0.00 0.00 34 1009.6
20260905155313 93 24 6.1 10.4 0.00 0.00 0.00 34 1009.6
20260905155213 93 30 3.5 7.8 0.00 0.00 0.00 34 1009.5
20260905155113 93 44 3.5 7.8 0.00 0.00 0.00 34 1009.5
20260905155013 93 53 0.9 7.8 0.00 0.00 0.00 34 1009.5
20260905154913 93 59 1.7 7.8 0.00 0.00 0.00 34 1009.4
20260905154814 92 61 1.7 8.7 0.00 0.00 0.00 34 1009.5
20260905154713 92 57 1.7 8.7 0.00 0.00 0.00 33 1009.6
20260905154613 92 62 0.0 8.7 0.00 0.00 0.00 33 1009.4
20260905154513 92 75 0.0 8.7 0.00 0.00 0.00 33 1009.5
20260905154414 92 76 1.7 8.7 0.00 0.00 0.00 33 1009.4
20260905154313 92 87 3.5 8.7 0.00 0.00 0.00 33 1009.5
20260905154214 92 101 3.5 8.7 0.00 0.00 0.00 32 1009.6
20260905154113 92 99 2.6 8.7 0.00 0.00 0.00 32 1009.6
20260905154013 92 94 2.6 8.7 0.00 0.00 0.00 32 1009.5
20260905153913 93 85 3.5 8.7 0.00 0.00 0.00 33 1009.4
20260905153813 93 86 1.7 7.8 0.00 0.00 0.00 33 1009.2
20260905153713 93 87 0.9 7.8 0.00 0.00 0.00 33 1009.4
20260905153613 93 84 4.3 7.8 0.00 0.00 0.00 33 1009.3
20260905153513 93 72 4.3 7.8 0.00 0.00 0.00 33 1009.4
20260905153413 93 76 3.5 8.7 0.00 0.00 0.00 32 1009.2
20260905153313 93 71 3.5 8.7 0.00 0.00 0.00 32 1009.4
20260905153213 93 65 3.5 10.4 0.00 0.00 0.00 32 1009.3
20260905153113 92 68 2.6 10.4 0.00 0.00 0.00 32 1009.4
20260905153014 92 73 1.7 10.4 0.00 0.00 0.00 32 1009.2
20260905152913 92 74 3.5 10.4 0.00 0.00 0.00 32 1009.2
20260905152813 92 79 1.7 10.4 0.00 0.00 0.00 32 1009.2
20260905152713 92 87 3.5 10.4 0.00 0.00 0.00 32 1009.3
20260905152613 92 88 3.5 10.4 0.00 0.00 0.00 32 1009.2
20260905152513 93 92 3.5 10.4 0.00 0.00 0.00 32 1009.2
20260905152413 93 83 4.3 12.2 0.00 0.00 0.00 32 1009.4
20260905152313 93 83 4.3 12.2 0.00 0.00 0.00 32 1009.1
20260905152213 93 81 5.2 12.2 0.00 0.00 0.00 32 1009.2
20260905152113 93 86 3.5 12.2 0.00 0.00 0.00 32 1009.3
20260905152013 93 80 3.5 12.2 0.00 0.00 0.00 31 1009.3
20260905151913 93 95 3.5 12.2 0.00 0.00 0.00 31 1009.3
20260905151813 93 100 2.6 12.2 0.00 0.00 0.00 33 1009.1
20260905151713 93 93 5.2 12.2 0.00 0.00 0.00 33 1009.3
20260905151613 93 98 3.5 12.2 0.00 0.00 0.00 33 1009.2
20260905151513 93 108 3.5 12.2 0.00 0.00 0.00 33 1009.2
20260905151413 93 115 3.5 10.4 0.00 0.00 0.00 33 1009.1
20260905151312 93 115 3.5 10.4 0.00 0.00 0.00 33 1009.0
20260905151212 93 125 3.5 10.4 0.00 0.00 0.00 33 1009.3
20260905151112 93 129 1.7 10.4 0.00 0.00 0.00 33 1009.2
20260905151012 93 127 4.3 10.4 0.00 0.00 0.00 34 1009.1
20260905150912 93 125 4.3 10.4 0.00 0.00 0.00 34 1009.1
20260905150812 93 118 3.5 11.3 0.00 0.00 0.00 34 1009.0
20260905150711 93 123 3.5 11.3 0.00 0.00 0.00 34 1009.0
20260905150610 93 121 3.5 11.3 0.00 0.00 0.00 34 1009.0
20260905150509 94 100 3.5 11.3 0.00 0.00 0.00 34 1008.8
20260905150410 94 98 6.1 11.3 0.00 0.00 0.00 34 1009.0
20260905150310 94 90 3.5 11.3 0.00 0.00 0.00 34 1009.0
20260905150209 94 87 3.5 11.3 0.00 0.00 0.00 34 1009.1
20260905150109 94 81 1.7 11.3 0.00 0.00 0.00 34 1008.9
20260905150009 94 95 3.5 11.3 0.00 0.00 0.00 34 1009.1
20260905145908 94 98 3.5 11.3 0.00 0.00 0.00 34 1009.0
20260905145808 94 101 0.9 9.6 0.00 0.00 0.00 33 1009.0
20260905145707 94 104 1.7 9.6 0.00 0.00 0.00 34 1009.1
20260905145606 94 108 3.5 9.6 0.00 0.00 0.00 34 1009.2
20260905145506 94 119 5.2 9.6 0.00 0.00 0.00 34 1009.1
20260905145405 94 130 5.2 9.6 0.00 0.00 0.00 33 1009.2
20260905145306 94 133 3.5 9.6 0.00 0.00 0.00 33 1009.1
20260905145203 94 138 2.6 10.4 0.00 0.00 0.00 34 1009.0
20260905145102 94 141 2.6 10.4 0.00 0.00 0.00 34 1009.0
20260905145002 94 133 2.6 10.4 0.00 0.00 0.00 33 1009.2
20260905144901 94 133 2.6 12.2 0.00 0.00 0.00 33 1009.1
20260905144800 94 140 1.7 12.2 0.00 0.00 0.00 33 1009.2
20260905144659 94 137 2.6 12.2 0.00 0.00 0.00 33 1009.1
20260905144559 94 135 2.6 12.2 0.00 0.00 0.00 33 1009.2
20260905144458 94 132 3.5 12.2 0.00 0.00 0.00 34 1009.2
20260905144357 94 127 3.5 12.2 0.00 0.00 0.00 33 1009.0
20260905144257 94 130 5.2 12.2 0.00 0.00 0.00 34 1009.1
20260905144157 94 126 3.5 12.2 0.00 0.00 0.00 34 1009.0
20260905144056 94 126 4.3 12.2 0.00 0.00 0.00 34 1009.1
20260905143954 94 127 4.3 12.2 0.00 0.00 0.00 34 1009.1
20260905143854 94 125 6.1 14.8 0.00 0.00 0.00 34 1009.2
20260905143753 95 120 5.2 14.8 0.00 0.00 0.00 34 1009.2
20260905143653 95 122 5.2 14.8 0.00 0.00 0.00 34 1009.0
20260905143553 95 117 3.5 14.8 0.00 0.00 0.00 34 1009.1
20260905143453 95 113 4.3 14.8 0.00 0.00 0.00 34 1009.2
20260905143352 95 111 4.3 14.8 0.00 0.00 0.00 33 1009.0
20260905143251 95 110 4.3 14.8 0.00 0.00 0.00 33 1008.9
20260905143151 96 108 3.5 14.8 0.00 0.00 0.00 33 1009.2
20260905143051 96 103 5.2 14.8 0.00 0.00 0.00 33 1009.0
20260905142950 96 103 3.5 14.8 0.00 0.00 0.00 33 1009.0
20260905142850 96 98 7.0 14.8 0.00 0.00 0.00 33 1009.1
20260905142750 97 95 1.7 9.6 0.00 0.00 0.00 32 1009.0
20260905142650 97 92 2.6 9.6 0.00 0.00 0.00 32 1009.0
20260905142549 97 96 3.5 9.6 0.00 0.00 0.00 32 1008.9
20260905142449 97 97 3.5 13.0 0.00 0.00 0.00 31 1009.2
20260905142348 97 84 2.6 13.0 0.00 0.00 0.00 31 1009.1
20260905142249 97 81 1.7 13.0 0.00 0.00 0.00 31 1009.0
20260905142148 97 80 0.9 13.0 0.00 0.00 0.00 31 1008.9
20260905142048 97 91 3.5 13.0 0.00 0.00 0.00 31 1009.0
20260905141948 97 96 3.5 13.0 0.00 0.00 0.00 30 1009.0
20260905141848 97 96 4.3 13.0 0.00 0.00 0.00 30 1009.0
20260905141748 97 86 2.6 13.0 0.00 0.00 0.00 30 1008.9
20260905141648 97 86 2.6 13.0 0.00 0.00 0.00 29 1008.9
20260905141548 97 86 1.7 13.0 0.00 0.00 0.00 29 1008.8
20260905141447 97 90 1.7 13.0 0.00 0.00 0.00 29 1009.2
20260905141347 96 103 2.6 11.3 0.00 0.00 0.00 29 1009.1
20260905141247 96 99 3.5 11.3 0.00 0.00 0.00 29 1008.7
20260905141147 96 94 4.3 11.3 0.00 0.00 0.00 30 1009.1
20260905141046 96 87 4.3 11.3 0.00 0.00 0.00 30 1008.9
20260905140945 96 83 4.3 11.3 0.00 0.00 0.00 30 1008.9
20260905140845 96 76 5.2 11.3 0.00 0.00 0.00 30 1009.0
20260905140745 96 81 3.5 8.7 0.00 0.00 0.00 30 1008.9
20260905140645 96 91 3.5 11.3 0.00 0.00 0.00 29 1009.1
20260905140544 96 87 1.7 11.3 0.00 0.00 0.00 30 1009.0
20260905140444 96 83 2.6 11.3 0.00 0.00 0.00 30 1009.0
20260905140344 96 82 3.5 11.3 0.00 0.00 0.00 30 1008.9
20260905140242 96 82 4.3 11.3 0.00 0.00 0.00 30 1009.0
20260905140141 96 84 3.5 11.3 0.00 0.00 0.00 30 1009.1
20260905140041 96 86 3.5 11.3 0.00 0.00 0.00 30 1009.0
20260905135940 96 87 3.5 11.3 0.00 0.00 0.00 30 1009.0
20260905135840 96 92 2.6 11.3 0.00 0.00 0.00 30 1009.1
20260905135740 96 98 4.3 12.2 0.00 0.00 0.00 30 1009.0
20260905135640 96 98 1.7 12.2 0.00 0.00 0.00 30 1009.0
20260905135539 96 106 2.6 12.2 0.00 0.00 0.00 30 1009.1
20260905135439 96 112 4.3 12.2 0.00 0.00 0.00 30 1009.1
20260905135339 96 116 4.3 12.2 0.00 0.00 0.00 30 1009.2
20260905135238 96 123 3.5 12.2 0.00 0.00 0.00 29 1009.1
20260905135138 96 131 4.3 12.2 0.00 0.00 0.00 30 1009.1
20260905135038 96 138 2.6 12.2 0.00 0.00 0.00 30 1009.1
20260905134937 96 138 3.5 12.2 0.00 0.00 0.00 30 1009.3
20260905134836 97 143 6.1 12.2 0.00 0.00 0.00 30 1009.2
20260905134736 97 150 5.2 11.3 0.00 0.00 0.00 30 1009.3
20260905134636 97 143 4.3 11.3 0.00 0.00 0.00 29 1009.2
20260905134535 97 139 5.2 11.3 0.00 0.00 0.00 30 1009.3
20260905134434 97 133 2.6 11.3 0.00 0.00 0.00 29 1009.2
20260905134334 96 125 3.5 11.3 0.00 0.00 0.00 29 1009.2
20260905134233 96 126 5.2 10.4 0.00 0.00 0.00 29 1009.1
20260905134132 96 120 0.9 10.4 0.00 0.00 0.00 29 1009.1
20260905134032 96 113 2.6 10.4 0.00 0.00 0.00 30 1009.2
20260905133931 96 114 4.3 10.4 0.00 0.00 0.00 29 1009.1
20260905133830 96 114 6.1 10.4 0.00 0.00 0.00 30 1009.0
20260905133729 96 107 4.3 10.4 0.00 0.00 0.00 29 1009.3
20260905133629 96 107 7.0 10.4 0.00 0.00 0.00 29 1009.2
20260905133528 96 101 6.1 10.4 0.00 0.00 0.00 29 1009.2
20260905133427 96 104 2.6 10.4 0.00 0.00 0.00 28 1009.0
20260905133327 96 106 3.5 10.4 0.00 0.00 0.00 29 1009.4
20260905133226 96 102 3.5 10.4 0.00 0.00 0.00 29 1009.0
20260905133125 96 106 4.3 10.4 0.00 0.00 0.00 29 1009.1
20260905133025 96 111 3.5 10.4 0.00 0.00 0.00 29 1009.1
20260905132924 96 113 4.3 10.4 0.00 0.00 0.00 29 1009.2
20260905132823 96 110 4.3 10.4 0.00 0.00 0.00 29 1009.1
20260905132723 96 109 7.0 10.4 0.00 0.00 0.00 29 1009.3
20260905132622 96 112 5.2 10.4 0.00 0.00 0.00 29 1009.3
20260905132521 97 115 3.5 10.4 0.00 0.00 0.00 29 1009.4
20260905132421 98 117 3.5 10.4 0.00 0.00 0.00 29 1009.2
20260905132321 98 120 4.3 10.4 0.00 0.00 0.00 29 1009.3
20260905132220 98 125 6.1 10.4 0.00 0.00 0.00 29 1009.2
20260905132119 98 120 3.5 9.6 0.00 0.00 0.00 28 1009.3
20260905132019 98 124 3.5 8.7 0.00 0.00 0.00 28 1009.3
20260905131918 97 125 1.7 11.3 0.00 0.00 0.00 27 1009.4
20260905131818 97 124 1.7 11.3 0.00 0.00 0.00 27 1009.3
20260905131717 96 118 1.7 11.3 0.00 0.00 0.00 28 1009.1
20260905131617 96 114 1.7 11.3 0.00 0.00 0.00 28 1009.4
20260905131516 97 112 4.3 11.3 0.00 0.00 0.00 28 1009.3
20260905131416 97 109 4.3 11.3 0.00 0.00 0.00 28 1009.2
20260905131316 97 103 1.7 11.3 0.00 0.00 0.00 28 1009.3
20260905131215 97 99 1.7 11.3 0.00 0.00 0.00 28 1009.4
20260905131116 97 98 2.6 11.3 0.00 0.00 0.00 29 1009.3
20260905131016 97 97 4.3 11.3 0.00 0.00 0.00 28 1009.5
20260905130916 97 91 7.0 11.3 0.00 0.00 0.00 29 1009.4
20260905130816 98 75 3.5 9.6 0.00 0.00 0.00 28 1009.3
20260905130716 98 89 5.2 9.6 0.00 0.00 0.00 28 1009.3
20260905130616 98 102 2.6 9.6 0.00 0.00 0.00 28 1009.6
20260905130516 97 98 3.5 9.6 0.00 0.00 0.00 28 1009.5
20260905130416 97 107 3.5 9.6 0.00 0.00 0.00 28 1009.2
20260905130315 97 105 3.5 13.0 0.00 0.00 0.00 28 1009.3
20260905130216 97 91 3.5 13.0 0.00 0.00 0.00 27 1009.2
20260905130115 97 86 1.7 13.0 0.00 0.00 0.00 27 1009.5
20260905130015 97 75 1.7 13.0 0.00 0.00 0.00 27 1009.2
20260905125915 97 69 1.7 13.0 0.00 0.00 0.00 28 1009.2
20260905125815 97 68 4.3 13.0 0.00 0.00 0.00 28 1009.5
20260905125715 97 62 3.5 13.0 0.00 0.00 0.00 28 1009.3
20260905125615 97 63 4.3 13.0 0.00 0.00 0.00 28 1009.3
20260905125516 97 62 3.5 13.0 0.00 0.00 0.00 28 1009.5
20260905125415 97 57 3.5 13.0 0.00 0.00 0.00 28 1009.5
20260905125315 97 54 7.0 13.0 0.00 0.00 0.00 28 1009.3
20260905125215 97 53 4.3 13.0 0.00 0.00 0.00 28 1009.4
20260905125116 97 53 4.3 13.0 0.00 0.00 0.00 28 1009.5
20260905125046 97 53 6.1 13.0 0.00 0.00 0.00 28 1009.5
20260905124916 97 59 6.1 13.0 0.00 0.00 0.00 28 1009.3
20260905124816 97 78 4.3 13.0 0.00 0.00 0.00 28 1009.5
20260905124715 96 92 4.3 13.0 0.00 0.00 0.00 28 1009.5
20260905124615 96 85 1.7 13.0 0.00 0.00 0.00 28 1009.6
20260905124513 96 85 2.6 13.0 0.00 0.00 0.00 28 1009.6
20260905124418 96 87 3.5 13.0 0.00 0.00 0.00 28 1009.6
20260905124318 96 97 7.0 13.0 0.00 0.00 0.00 28 1009.6
20260905124218 96 103 3.5 13.0 0.00 0.00 0.00 28 1009.4
20260905124118 96 108 3.5 13.0 0.00 0.00 0.00 28 1009.4
20260905124019 96 107 5.2 13.0 0.00 0.00 0.00 28 1009.7
20260905123918 96 98 5.2 13.0 0.00 0.00 0.00 28 1009.5
20260905123818 96 95 6.1 12.2 0.00 0.00 0.00 28 1009.5
20260905123718 97 100 1.7 10.4 0.00 0.00 0.00 28 1009.8
20260905123618 97 103 3.5 10.4 0.00 0.00 0.00 28 1009.4
20260905123518 97 103 1.7 10.4 0.00 0.00 0.00 28 1009.6
20260905123418 97 103 4.3 10.4 0.00 0.00 0.00 28 1009.6
20260905123318 98 94 3.5 10.4 0.00 0.00 0.00 28 1009.7
20260905123218 98 93 3.5 12.2 0.00 0.00 0.00 28 1009.6
20260905123118 98 84 3.5 12.2 0.00 0.00 0.00 28 1009.7
20260905123018 98 62 6.1 12.2 0.00 0.00 0.00 28 1009.6
20260905122918 98 62 5.2 12.2 0.00 0.00 0.00 27 1009.8
20260905122818 98 52 3.5 12.2 0.00 0.00 0.00 27 1009.6
20260905122718 98 48 2.6 12.2 0.00 0.00 0.00 27 1009.8
20260905122617 98 36 1.7 12.2 0.00 0.00 0.00 27 1009.5
20260905122518 97 37 1.7 12.2 0.00 0.00 0.00 27 1009.5
20260905122417 97 39 2.6 12.2 0.00 0.00 0.00 27 1009.6
20260905122317 97 50 3.5 12.2 0.00 0.00 0.00 28 1009.8
20260905122217 97 68 1.7 12.2 0.00 0.00 0.00 28 1009.6
20260905122118 97 71 3.5 12.2 0.00 0.00 0.00 28 1010.0
20260905122017 97 74 2.6 12.2 0.00 0.00 0.00 28 1009.7
20260905121917 96 78 3.5 12.2 0.00 0.00 0.00 27 1009.6
20260905121817 96 79 3.5 12.2 0.00 0.00 0.00 28 1009.7
20260905121717 96 85 7.0 12.2 0.00 0.00 0.00 28 1009.6
20260905121617 96 95 3.5 10.4 0.00 0.00 0.00 28 1009.7
20260905121517 96 97 5.2 10.4 0.00 0.00 0.00 28 1009.6
20260905121417 96 95 3.5 10.4 0.00 0.00 0.00 28 1009.8
20260905121317 96 93 1.7 10.4 0.00 0.00 0.00 28 1009.8
20260905121217 96 92 1.7 10.4 0.00 0.00 0.00 29 1009.9
20260905121117 96 96 3.5 10.4 0.00 0.00 0.00 29 1009.7
20260905121017 96 95 5.2 10.4 0.00 0.00 0.00 29 1009.6
20260905120917 96 102 3.5 13.9 0.00 0.00 0.00 29 1009.7
20260905120817 96 110 7.0 13.9 0.00 0.00 0.00 29 1009.6
20260905120717 96 107 5.2 13.9 0.00 0.00 0.00 29 1009.7
20260905120616 96 108 0.9 13.9 0.00 0.00 0.00 29 1009.8
20260905120516 96 107 3.5 13.9 0.00 0.00 0.00 29 1009.6
20260905120416 96 109 4.3 13.9 0.00 0.00 0.00 30 1009.8
20260905120316 96 111 3.5 13.9 0.00 0.00 0.00 29 1009.6
20260905120216 96 109 6.1 13.9 0.00 0.00 0.00 29 1009.8
20260905120116 97 107 4.3 13.9 0.00 0.00 0.00 29 1009.8
20260905120015 97 110 3.5 13.9 0.00 0.00 0.00 29 1009.7
20260905115915 97 105 4.3 13.9 0.00 0.00 0.00 29 1009.8
20260905115814 97 98 7.0 13.9 0.00 0.00 0.00 29 1009.8
20260905115714 97 97 5.2 11.3 0.00 0.00 0.00 29 1009.8
20260905115614 97 91 1.7 11.3 0.00 0.00 0.00 29 1009.7
20260905115514 97 89 3.5 11.3 0.00 0.00 0.00 29 1009.9
20260905115414 97 92 2.6 11.3 0.00 0.00 0.00 28 1009.7
20260905115314 97 97 1.7 11.3 0.00 0.00 0.00 28 1010.0
20260905115214 97 100 1.7 11.3 0.00 0.00 0.00 29 1009.8
20260905115114 97 106 3.5 11.3 0.00 0.00 0.00 29 1009.9
20260905115014 97 114 3.5 7.8 0.00 0.00 0.00 29 1009.9
20260905114914 97 122 3.5 7.8 0.00 0.00 0.00 29 1009.8
20260905114814 97 117 1.7 9.6 0.00 0.00 0.00 29 1009.8
20260905114714 97 106 1.7 9.6 0.00 0.00 0.00 29 1009.9
20260905114614 97 104 2.6 9.6 0.00 0.00 0.00 29 1010.1
20260905114514 97 100 1.7 9.6 0.00 0.00 0.00 29 1009.8
20260905114414 97 92 2.6 9.6 0.00 0.00 0.00 29 1009.9
20260905114314 97 79 3.5 9.6 0.00 0.00 0.00 29 1009.9
20260905114214 97 76 3.5 9.6 0.00 0.00 0.00 29 1009.9
20260905114114 97 65 2.6 9.6 0.00 0.00 0.00 29 1009.8
20260905114014 97 59 1.7 9.6 0.00 0.00 0.00 28 1010.0
20260905113914 97 68 3.5 9.6 0.00 0.00 0.00 29 1009.6
20260905113814 96 76 6.1 9.6 0.00 0.00 0.00 29 1010.0
20260905113714 96 79 4.3 8.7 0.00 0.00 0.00 29 1010.0
20260905113614 96 76 2.6 7.0 0.00 0.00 0.00 29 1009.9
20260905113514 95 72 1.7 7.0 0.00 0.00 0.00 29 1009.9
20260905113414 95 75 1.7 7.0 0.00 0.00 0.00 29 1009.9
20260905113314 95 80 1.7 7.0 0.00 0.00 0.00 29 1010.0
20260905113214 95 78 2.6 7.0 0.00 0.00 0.00 29 1009.8
20260905113114 95 81 1.7 8.7 0.00 0.00 0.00 29 1009.8
20260905113014 95 84 3.5 9.6 0.00 0.00 0.00 30 1009.9
20260905112914 95 84 3.5 11.3 0.00 0.00 0.00 30 1009.9
20260905112814 95 83 3.5 11.3 0.00 0.00 0.00 30 1009.9
20260905112714 95 82 2.6 11.3 0.00 0.00 0.00 29 1010.0
20260905112614 95 80 3.5 11.3 0.00 0.00 0.00 30 1010.0
20260905112514 95 80 3.5 11.3 0.00 0.00 0.00 30 1010.1
20260905112414 95 82 4.3 11.3 0.00 0.00 0.00 30 1010.0
20260905112314 95 81 4.3 11.3 0.00 0.00 0.00 30 1010.0
20260905112214 95 75 3.5 11.3 0.00 0.00 0.00 30 1010.2
20260905112114 95 73 5.2 11.3 0.00 0.00 0.00 30 1010.0
20260905112014 95 71 4.3 11.3 0.00 0.00 0.00 30 1010.1
20260905111914 95 68 2.6 11.3 0.00 0.00 0.00 30 1010.1
20260905111814 95 64 4.3 11.3 0.00 0.00 0.00 30 1010.1
20260905111714 95 65 2.6 11.3 0.00 0.00 0.00 30 1010.1
20260905111614 95 63 1.7 11.3 0.00 0.00 0.00 30 1010.4
20260905111514 96 63 2.6 11.3 0.00 0.00 0.00 30 1010.3
20260905111414 96 61 2.6 11.3 0.00 0.00 0.00 30 1010.3
20260905111314 96 59 1.7 11.3 0.00 0.00 0.00 31 1010.3
20260905111214 96 65 5.2 11.3 0.00 0.00 0.00 30 1010.2
20260905111114 96 60 5.2 11.3 0.00 0.00 0.00 30 1010.2
20260905111014 96 52 5.2 11.3 0.00 0.00 0.00 29 1010.2
20260905110913 96 47 6.1 11.3 0.00 0.00 0.00 30 1010.2
20260905110814 95 48 1.7 13.0 0.00 0.00 0.00 29 1010.2
20260905110714 95 50 1.7 13.0 0.00 0.00 0.00 30 1010.1
20260905110614 95 53 3.5 13.0 0.00 0.00 0.00 30 1010.2
20260905110513 95 53 1.7 13.0 0.00 0.00 0.00 30 1010.2
20260905110413 95 57 0.9 13.0 0.00 0.00 0.00 30 1010.2
20260905110313 95 53 1.7 13.0 0.00 0.00 0.00 30 1010.3
20260905110213 95 55 5.2 13.0 0.00 0.00 0.00 30 1010.0
20260905110114 95 57 3.5 13.0 0.00 0.00 0.00 30 1010.4
20260905110014 95 58 2.6 13.0 0.00 0.00 0.00 30 1010.1
20260905105914 95 53 4.3 13.0 0.00 0.00 0.00 30 1010.1
20260905105813 95 46 7.0 13.0 0.00 0.00 0.00 30 1010.4
20260905105714 95 42 7.0 13.0 0.00 0.00 0.00 30 1010.2
20260905105614 95 43 5.2 11.3 0.00 0.00 0.00 30 1010.2
20260905105514 95 41 3.5 14.8 0.00 0.00 0.00 30 1010.0
20260905105413 95 33 3.5 14.8 0.00 0.00 0.00 30 1010.3
20260905105314 94 36 3.5 14.8 0.00 0.00 0.00 30 1010.2
20260905105214 94 28 3.5 14.8 0.00 0.00 0.00 30 1010.4
20260905105113 94 28 6.1 14.8 0.00 0.00 0.00 30 1010.3
20260905105014 95 31 4.3 14.8 0.00 0.00 0.00 30 1010.1
20260905104913 95 38 7.8 14.8 0.00 0.00 0.00 30 1010.1
20260905104813 95 54 4.3 14.8 0.00 0.00 0.00 30 1010.3
20260905104713 96 68 3.5 14.8 0.00 0.00 0.00 30 1010.1
20260905104614 96 64 3.5 14.8 0.00 0.00 0.00 30 1010.1
20260905104513 96 63 7.8 14.8 0.00 0.00 0.00 31 1010.3
20260905104413 96 71 8.7 14.8 0.00 0.00 0.00 30 1010.4
20260905104314 96 81 3.5 11.3 0.00 0.00 0.00 30 1010.3
20260905104213 96 92 3.5 11.3 0.00 0.00 0.00 29 1010.4
20260905104114 96 77 1.7 11.3 0.00 0.00 0.00 29 1010.1
20260905104014 96 62 2.6 11.3 0.00 0.00 0.00 29 1010.2
20260905103913 96 57 0.9 11.3 0.00 0.00 0.00 29 1010.4
20260905103813 96 52 4.3 11.3 0.00 0.00 0.00 29 1010.3
20260905103713 96 45 2.6 11.3 0.00 0.00 0.00 29 1010.2
20260905103613 96 49 1.7 11.3 0.00 0.00 0.00 29 1010.2
20260905103513 96 57 1.7 12.2 0.00 0.00 0.00 30 1010.3
20260905103413 95 61 1.7 12.2 0.00 0.00 0.00 30 1010.4
20260905103313 95 42 6.1 12.2 0.00 0.00 0.00 30 1010.3
20260905103214 95 34 3.5 12.2 0.00 0.00 0.00 30 1010.4
20260905103113 95 28 1.7 12.2 0.00 0.00 0.00 30 1010.3
20260905103013 95 29 6.1 12.2 0.00 0.00 0.00 30 1010.4
20260905102914 95 20 3.5 12.2 0.00 0.00 0.00 30 1010.4
20260905102813 95 7 1.7 12.2 0.00 0.00 0.00 30 1010.4
20260905102713 95 5 0.9 12.2 0.00 0.00 0.00 30 1010.3
20260905102613 95 11 1.7 12.2 0.00 0.00 0.00 30 1010.2
20260905102513 95 18 3.5 14.8 0.00 0.00 0.00 30 1010.6
20260905102413 95 27 7.0 14.8 0.00 0.00 0.00 30 1010.4
20260905102313 95 30 4.3 14.8 0.00 0.00 0.00 30 1010.5
20260905102213 95 24 2.6 14.8 0.00 0.00 0.00 30 1010.5
20260905102113 95 23 1.7 14.8 0.00 0.00 0.00 30 1010.4
20260905102013 95 25 1.7 14.8 0.00 0.00 0.00 30 1010.5
20260905101913 95 30 1.7 14.8 0.00 0.00 0.00 30 1010.4
20260905101813 95 38 2.6 14.8 0.00 0.00 0.00 30 1010.5
20260905101713 95 40 4.3 14.8 0.00 0.00 0.00 30 1010.5
20260905101614 95 36 4.3 14.8 0.00 0.00 0.00 30 1010.5
20260905101513 95 41 7.0 13.0 0.00 0.00 0.00 30 1010.5
20260905101413 95 27 2.6 8.7 0.00 0.00 0.00 30 1010.5
20260905101314 95 35 1.7 8.7 0.00 0.00 0.00 30 1010.5
20260905101214 95 41 3.5 12.2 0.00 0.00 0.00 30 1010.4
20260905101113 95 40 3.5 12.2 0.00 0.00 0.00 30 1010.3
20260905101013 94 48 3.5 12.2 0.00 0.00 0.00 31 1010.4
20260905100913 94 42 1.7 12.2 0.00 0.00 0.00 31 1010.4
20260905100813 94 37 1.7 12.2 0.00 0.00 0.00 30 1010.5
20260905100713 94 35 0.9 12.2 0.00 0.00 0.00 31 1010.2
20260905100613 95 35 3.5 12.2 0.00 0.00 0.00 31 1010.7
20260905100513 95 22 3.5 12.2 0.00 0.00 0.00 31 1010.4
20260905100413 95 14 3.5 12.2 0.00 0.00 0.00 31 1010.6
20260905100313 95 14 5.2 12.2 0.00 0.00 0.00 31 1010.5
20260905100213 95 12 6.1 11.3 0.00 0.00 0.00 30 1010.7
20260905100113 95 23 3.5 10.4 0.00 0.00 0.00 30 1010.6
20260905100013 94 19 3.5 10.4 0.00 0.00 0.00 30 1010.6
20260905095913 94 26 3.5 10.4 0.00 0.00 0.00 30 1010.6
20260905095813 93 43 0.0 10.4 0.00 0.00 0.00 30 1010.3
20260905095713 93 47 0.0 10.4 0.00 0.00 0.00 30 1010.6
20260905095613 93 45 1.7 10.4 0.00 0.00 0.00 30 1010.6
20260905095513 93 44 2.6 10.4 0.00 0.00 0.00 31 1010.6
20260905095413 94 47 7.0 10.4 0.00 0.00 0.00 31 1010.5
20260905095313 94 45 7.0 10.4 0.00 0.00 0.00 31 1010.5
20260905095213 94 43 3.5 10.4 0.00 0.00 0.00 31 1010.7
20260905095113 95 40 5.2 10.4 0.00 0.00 0.00 31 1010.5
20260905095013 95 42 5.2 10.4 0.00 0.00 0.00 31 1010.5
20260905094913 95 34 7.0 10.4 0.00 0.00 0.00 31 1010.7
20260905094813 95 10 7.0 10.4 0.00 0.00 0.00 31 1010.5
20260905094713 95 7 3.5 8.7 0.00 0.00 0.00 31 1010.7
20260905094614 94 12 1.7 8.7 0.00 0.00 0.00 30 1010.8
20260905094513 94 19 1.7 8.7 0.00 0.00 0.00 31 1010.8
20260905094413 94 22 1.7 8.7 0.00 0.00 0.00 31 1010.7
20260905094313 94 24 1.7 8.7 0.00 0.00 0.00 30 1010.6
20260905094213 94 29 0.9 8.7 0.00 0.00 0.00 30 1010.4
20260905094113 94 30 1.7 8.7 0.00 0.00 0.00 31 1010.9
20260905094013 94 28 1.7 8.7 0.00 0.00 0.00 30 1010.7
20260905093913 94 36 1.7 9.6 0.00 0.00 0.00 31 1010.8
20260905093813 94 44 6.1 9.6 0.00 0.00 0.00 31 1010.6
20260905093714 94 42 6.1 9.6 0.00 0.00 0.00 31 1010.7
20260905093613 94 41 6.1 9.6 0.00 0.00 0.00 31 1010.6
20260905093513 94 44 2.6 9.6 0.00 0.00 0.00 31 1010.5
20260905093413 94 44 2.6 9.6 0.00 0.00 0.00 31 1010.8
20260905093313 94 42 1.7 9.6 0.00 0.00 0.00 31 1010.7
20260905093213 95 37 1.7 9.6 0.00 0.00 0.00 31 1010.6
20260905093113 95 33 1.7 13.0 0.00 0.00 0.00 31 1010.9
20260905093013 95 25 3.5 13.0 0.00 0.00 0.00 32 1010.7
20260905092913 95 18 5.2 13.0 0.00 0.00 0.00 31 1010.8
20260905092813 95 11 3.5 13.0 0.00 0.00 0.00 31 1010.6
20260905092713 94 8 2.6 13.0 0.00 0.00 0.00 30 1010.7
20260905092613 94 8 0.9 13.0 0.00 0.00 0.00 31 1010.8
20260905092513 94 7 1.7 13.0 0.00 0.00 0.00 31 1010.6
20260905092413 94 11 1.7 13.0 0.00 0.00 0.00 32 1010.7
20260905092313 94 16 1.7 13.0 0.00 0.00 0.00 32 1010.7
20260905092213 94 17 1.7 13.0 0.00 0.00 0.00 32 1010.8
20260905092113 94 18 3.5 13.0 0.00 0.00 0.00 32 1010.9
20260905092013 94 27 3.5 10.4 0.00 0.00 0.00 32 1010.8
20260905091913 94 33 3.5 10.4 0.00 0.00 0.00 32 1010.6
20260905091813 93 38 2.6 10.4 0.00 0.00 0.00 32 1010.7
20260905091713 93 41 1.7 10.4 0.00 0.00 0.00 32 1010.7
20260905091613 93 44 3.5 10.4 0.00 0.00 0.00 33 1010.5
20260905091513 93 45 2.6 10.4 0.00 0.00 0.00 33 1010.7
20260905091413 93 45 4.3 10.4 0.00 0.00 0.00 33 1010.7
20260905091313 93 44 2.6 10.4 0.00 0.00 0.00 32 1010.8
20260905091213 93 47 3.5 10.4 0.00 0.00 0.00 33 1010.7
20260905091113 93 51 3.5 10.4 0.00 0.00 0.00 33 1010.6
20260905091013 92 49 4.3 10.4 0.00 0.00 0.00 33 1010.6
20260905090913 93 39 2.6 7.8 0.00 0.00 0.00 33 1010.7
20260905090813 92 30 1.7 8.7 0.00 0.00 0.00 33 1010.6
20260905090713 92 24 0.9 8.7 0.00 0.00 0.00 33 1010.8
20260905090613 92 28 0.9 8.7 0.00 0.00 0.00 33 1010.7
20260905090513 92 29 2.6 8.7 0.00 0.00 0.00 32 1010.9
20260905090413 92 16 1.7 8.7 0.00 0.00 0.00 33 1010.8
20260905090313 92 10 3.5 9.6 0.00 0.00 0.00 32 1010.7
20260905090213 92 16 3.5 9.6 0.00 0.00 0.00 33 1010.7
20260905090113 92 16 2.6 9.6 0.00 0.00 0.00 33 1010.8
20260905090013 92 20 2.6 9.6 0.00 0.00 0.00 33 1010.7
20260905085913 92 20 5.2 9.6 0.00 0.00 0.00 33 1010.7
20260905085813 92 15 1.7 9.6 0.00 0.00 0.00 32 1010.7
20260905085713 92 15 1.7 9.6 0.00 0.00 0.00 32 1010.7
20260905085613 92 11 1.7 9.6 0.00 0.00 0.00 32 1010.7
20260905085513 92 1 2.6 9.6 0.00 0.00 0.00 32 1010.7
20260905085413 92 359 3.5 9.6 0.00 0.00 0.00 33 1010.8
20260905085313 92 348 3.5 7.8 0.00 0.00 0.00 32 1010.7
20260905085213 92 346 2.6 7.8 0.00 0.00 0.00 32 1010.8
20260905085113 92 342 1.7 7.8 0.00 0.00 0.00 33 1010.6
20260905085013 92 341 2.6 7.8 0.00 0.00 0.00 33 1010.9
20260905084913 92 340 2.6 9.6 0.00 0.00 0.00 33 1010.8
20260905084813 92 340 2.6 9.6 0.00 0.00 0.00 33 1010.9
20260905084713 92 339 2.6 9.6 0.00 0.00 0.00 33 1010.9
20260905084613 92 338 3.5 9.6 0.00 0.00 0.00 33 1010.8
20260905084513 92 352 3.5 9.6 0.00 0.00 0.00 33 1010.8
20260905084413 92 360 3.5 9.6 0.00 0.00 0.00 33 1010.8
20260905084313 92 15 4.3 9.6 0.00 0.00 0.00 33 1010.8
20260905084213 92 11 0.9 9.6 0.00 0.00 0.00 33 1010.8
20260905084113 92 11 2.6 9.6 0.00 0.00 0.00 33 1010.7
20260905084013 92 10 1.7 9.6 0.00 0.00 0.00 33 1010.9
20260905083913 91 23 3.5 11.3 0.00 0.00 0.00 34 1010.6
20260905083813 90 21 1.7 11.3 0.00 0.00 0.00 34 1010.8
20260905083714 90 19 0.9 11.3 0.00 0.00 0.00 35 1010.8
20260905083613 90 16 2.6 11.3 0.00 0.00 0.00 35 1010.8
20260905083513 90 16 1.7 11.3 0.00 0.00 0.00 35 1010.7
20260905083413 90 16 1.7 11.3 0.00 0.00 0.00 36 1010.7
20260905083313 90 15 1.7 11.3 0.00 0.00 0.00 36 1010.9
20260905083213 90 12 1.7 11.3 0.00 0.00 0.00 36 1011.0
20260905083113 90 11 5.2 11.3 0.00 0.00 0.00 36 1010.9
20260905083013 90 8 3.5 11.3 0.00 0.00 0.00 35 1010.9
20260905082913 90 4 5.2 9.6 0.00 0.00 0.00 37 1010.9
20260905082813 90 10 5.2 9.6 0.00 0.00 0.00 37 1010.8
20260905082713 90 10 5.2 9.6 0.00 0.00 0.00 37 1011.0
20260905082613 90 10 2.6 9.6 0.00 0.00 0.00 37 1010.7
20260905082513 90 10 3.5 9.6 0.00 0.00 0.00 37 1010.9
20260905082413 90 15 4.3 10.4 0.00 0.00 0.00 36 1010.7
20260905082313 90 17 3.5 10.4 0.00 0.00 0.00 37 1010.9
20260905082213 89 20 4.3 10.4 0.00 0.00 0.00 37 1010.8
20260905082113 89 21 4.3 10.4 0.00 0.00 0.00 37 1010.7
20260905082013 89 24 2.6 10.4 0.00 0.00 0.00 37 1010.7
20260905081913 89 21 3.5 10.4 0.00 0.00 0.00 38 1010.7
20260905081813 89 17 2.6 10.4 0.00 0.00 0.00 38 1010.7
20260905081713 89 21 7.0 10.4 0.00 0.00 0.00 37 1010.6
20260905081613 89 27 3.5 10.4 0.00 0.00 0.00 37 1010.8
20260905081513 89 29 6.1 10.4 0.00 0.00 0.00 38 1010.8
20260905081413 89 26 6.1 10.4 0.00 0.00 0.00 38 1010.8
20260905081313 89 23 4.3 7.8 0.00 0.00 0.00 38 1010.7
20260905081213 89 16 3.5 7.8 0.00 0.00 0.00 38 1010.8
20260905081113 89 19 2.6 7.8 0.00 0.00 0.00 38 1010.9
20260905081013 89 20 3.5 7.8 0.00 0.00 0.00 38 1010.6
20260905080913 89 20 2.6 7.0 0.00 0.00 0.00 38 1010.8
20260905080813 89 17 3.5 7.0 0.00 0.00 0.00 37 1010.6
20260905080713 89 10 1.7 7.0 0.00 0.00 0.00 37 1010.7
20260905080613 89 2 2.6 7.0 0.00 0.00 0.00 38 1010.5
20260905080513 90 1 2.6 7.0 0.00 0.00 0.00 37 1010.7
20260905080413 90 352 2.6 7.0 0.00 0.00 0.00 37 1010.7
20260905080313 90 347 0.9 7.0 0.00 0.00 0.00 37 1010.8
20260905080213 90 359 1.7 7.0 0.00 0.00 0.00 37 1010.5
20260905080113 90 357 3.5 7.0 0.00 0.00 0.00 37 1010.4
20260905080013 90 2 2.6 6.1 0.00 0.00 0.00 37 1010.6
20260905075913 90 3 3.5 6.1 0.00 0.00 0.00 37 1010.7
20260905075813 90 5 2.6 6.1 0.00 0.00 0.00 36 1010.4
20260905075713 90 2 2.6 6.1 0.00 0.00 0.00 36 1010.6
20260905075613 90 353 0.9 3.5 0.00 0.00 0.00 36 1010.4
20260905075513 90 353 0.9 3.5 0.00 0.00 0.00 36 1010.6
20260905075413 90 358 0.9 3.5 0.00 0.00 0.00 37 1010.4
20260905075313 90 358 0.9 3.5 0.00 0.00 0.00 37 1010.4
20260905075213 90 358 1.7 3.5 0.00 0.00 0.00 37 1010.5
20260905075113 90 358 1.7 3.5 0.00 0.00 0.00 37 1010.5
20260905075013 90 359 0.9 3.5 0.00 0.00 0.00 37 1010.3
20260905074913 90 5 0.9 3.5 0.00 0.00 0.00 37 1010.4
20260905074813 90 11 0.9 5.2 0.00 0.00 0.00 38 1010.4
20260905074713 90 14 1.7 5.2 0.00 0.00 0.00 38 1010.3
20260905074613 90 20 0.9 5.2 0.00 0.00 0.00 38 1010.4
20260905074513 89 20 0.9 5.2 0.00 0.00 0.00 38 1010.5
20260905074413 89 19 0.9 5.2 0.00 0.00 0.00 38 1010.5
20260905074313 89 19 0.9 5.2 0.00 0.00 0.00 38 1010.4
20260905074213 89 16 0.0 5.2 0.00 0.00 0.00 38 1010.3
20260905074113 88 12 0.0 5.2 0.00 0.00 0.00 38 1010.2
20260905074013 88 7 1.7 5.2 0.00 0.00 0.00 39 1010.4
20260905073913 88 353 1.7 5.2 0.00 0.00 0.00 39 1010.4
20260905073813 88 334 0.0 3.5 0.00 0.00 0.00 39 1010.4
20260905073713 88 326 0.0 4.3 0.00 0.00 0.00 39 1010.3
20260905073613 88 321 0.0 4.3 0.00 0.00 0.00 39 1010.3
20260905073513 88 316 0.9 7.0 0.00 0.00 0.00 39 1010.5
20260905073413 88 313 1.7 7.0 0.00 0.00 0.00 39 1010.3
20260905073313 88 310 1.7 7.0 0.00 0.00 0.00 40 1010.4
20260905073213 88 309 0.9 7.0 0.00 0.00 0.00 40 1010.3
20260905073113 88 313 0.9 7.0 0.00 0.00 0.00 40 1010.4
20260905073013 88 313 1.7 7.0 0.00 0.00 0.00 40 1010.3
20260905072913 88 320 1.7 7.0 0.00 0.00 0.00 40 1010.3
20260905072813 89 326 1.7 7.0 0.00 0.00 0.00 40 1010.1
20260905072713 89 333 2.6 7.0 0.00 0.00 0.00 40 1010.3
20260905072613 90 343 3.5 7.0 0.00 0.00 0.00 40 1010.4
20260905072513 91 356 3.5 7.0 0.00 0.00 0.00 40 1010.2
20260905072412 91 5 1.7 4.3 0.00 0.00 0.00 39 1010.1
20260905072312 91 23 1.7 4.3 0.00 0.00 0.00 39 1010.2
20260905072213 92 43 1.7 4.3 0.00 0.00 0.00 38 1010.1
20260905072112 92 64 0.0 5.2 0.00 0.00 0.00 37 1010.3
20260905072013 92 83 1.7 7.0 0.00 0.00 0.00 38 1010.2
20260905071912 92 97 0.9 7.0 0.00 0.00 0.00 35 1010.3
20260905071812 92 107 0.9 7.0 0.00 0.00 0.00 36 1010.3
20260905071712 92 115 1.7 7.0 0.00 0.00 0.00 34 1010.3
20260905071612 92 121 1.7 7.0 0.00 0.00 0.00 33 1010.3
20260905071512 91 125 1.7 7.0 0.00 0.00 0.00 34 1010.3
20260905071412 91 128 1.7 7.0 0.00 0.00 0.00 34 1010.1
20260905071312 91 131 1.7 7.0 0.00 0.00 0.00 33 1010.3
20260905071212 91 134 1.7 7.0 0.00 0.00 0.00 34 1010.3
20260905071112 91 135 3.5 7.0 0.00 0.00 0.00 34 1010.2
20260905071012 90 135 3.5 6.1 0.00 0.00 0.00 34 1010.2
20260905070912 90 135 2.6 6.1 0.00 0.00 0.00 34 1010.2
20260905070811 90 135 2.6 7.0 0.00 0.00 0.00 34 1010.2
20260905070711 90 135 3.5 7.0 0.00 0.00 0.00 34 1010.1
20260905070611 90 135 2.6 7.0 0.00 0.00 0.00 35 1010.0
20260905070510 90 135 3.5 7.0 0.00 0.00 0.00 35 1010.2
20260905070410 90 135 3.5 7.0 0.00 0.00 0.00 35 1010.0
20260905070310 90 135 3.5 7.0 0.00 0.00 0.00 35 1010.2
20260905070209 90 135 3.5 7.0 0.00 0.00 0.00 35 1010.2
20260905070110 90 138 2.6 7.0 0.00 0.00 0.00 35 1010.1
20260905070009 90 143 2.6 7.0 0.00 0.00 0.00 35 1010.2
20260905065909 90 147 3.5 7.0 0.00 0.00 0.00 35 1010.2
20260905065809 89 146 4.3 7.0 0.00 0.00 0.00 36 1010.0
20260905065709 89 147 2.6 7.0 0.00 0.00 0.00 36 1010.2
20260905065609 89 152 3.5 7.8 0.00 0.00 0.00 35 1010.0
20260905065509 89 157 3.5 7.8 0.00 0.00 0.00 36 1010.3
20260905065409 89 158 2.6 7.8 0.00 0.00 0.00 35 1010.3
20260905065309 89 162 3.5 7.8 0.00 0.00 0.00 35 1010.2
20260905065209 89 166 3.5 7.8 0.00 0.00 0.00 35 1010.2
20260905065109 88 168 3.5 8.7 0.00 0.00 0.00 36 1010.2
20260905065009 88 169 5.2 8.7 0.00 0.00 0.00 35 1010.2
20260905064909 88 170 3.5 8.7 0.00 0.00 0.00 36 1010.0
20260905064809 87 170 4.3 8.7 0.00 0.00 0.00 37 1010.3
20260905064709 87 169 4.3 8.7 0.00 0.00 0.00 36 1010.2
20260905064609 87 167 4.3 9.6 0.00 0.00 0.00 37 1010.1
20260905064508 87 167 4.3 9.6 0.00 0.00 0.00 37 1010.3
20260905064408 87 172 4.3 9.6 0.00 0.00 0.00 38 1010.2
20260905064308 87 173 4.3 9.6 0.00 0.00 0.00 38 1010.2
20260905064209 87 168 5.2 9.6 0.00 0.00 0.00 38 1010.0
20260905064108 86 168 4.3 9.6 0.00 0.00 0.00 38 1010.2
20260905064009 86 168 4.3 11.3 0.00 0.00 0.00 38 1010.1
20260905063911 86 169 4.3 11.3 0.00 0.00 0.00 38 1010.1
20260905063808 86 169 4.3 11.3 0.00 0.00 0.00 39 1010.4
20260905063708 86 169 4.3 11.3 0.00 0.00 0.00 39 1010.3
20260905063608 86 172 5.2 11.3 0.00 0.00 0.00 39 1010.1
20260905063510 86 171 5.2 11.3 0.00 0.00 0.00 39 1010.2
20260905063408 86 167 6.1 11.3 0.00 0.00 0.00 39 1010.2
20260905063309 86 164 6.1 11.3 0.00 0.00 0.00 40 1010.2
20260905063209 86 168 5.2 11.3 0.00 0.00 0.00 39 1010.2
20260905063108 85 170 6.1 11.3 0.00 0.00 0.00 40 1010.2
20260905063008 85 169 7.0 11.3 0.00 0.00 0.00 40 1010.3
20260905062908 85 173 7.0 12.2 0.00 0.00 0.00 40 1010.2
20260905062807 85 177 5.2 12.2 0.00 0.00 0.00 40 1010.2
20260905062708 85 180 7.0 12.2 0.00 0.00 0.00 40 1010.1
20260905062608 85 178 7.0 12.2 0.00 0.00 0.00 40 1010.2
20260905062507 85 175 5.2 12.2 0.00 0.00 0.00 40 1010.2
20260905062407 85 175 6.1 12.2 0.00 0.00 0.00 40 1010.1
20260905062307 85 179 7.0 12.2 0.00 0.00 0.00 40 1010.0
20260905062207 84 179 6.1 12.2 0.00 0.00 0.00 40 1010.2
20260905062107 84 179 7.0 12.2 0.00 0.00 0.00 40 1010.2
20260905062007 84 179 7.0 12.2 0.00 0.00 0.00 40 1010.3
20260905061907 84 175 7.0 12.2 0.00 0.00 0.00 40 1010.1
20260905061807 84 174 6.1 13.0 0.00 0.00 0.00 41 1010.2
20260905061707 84 174 6.1 13.0 0.00 0.00 0.00 41 1010.4
20260905061607 84 176 7.0 13.0 0.00 0.00 0.00 41 1010.2
20260905061406 83 180 7.0 13.0 0.00 0.00 0.00 41 1010.1
20260905061307 83 173 7.0 13.0 0.00 0.00 0.00 40 1010.2
20260905061206 83 168 7.0 13.0 0.00 0.00 0.00 40 1010.0
20260905061106 83 163 7.0 13.0 0.00 0.00 0.00 41 1010.2
20260905061006 83 158 7.0 13.0 0.00 0.00 0.00 41 1010.1
20260905060906 83 154 6.1 13.0 0.00 0.00 0.00 41 1010.2
20260905060806 83 149 8.7 13.0 0.00 0.00 0.00 41 1010.1
20260905060706 83 145 7.8 13.0 0.00 0.00 0.00 41 1010.1
20260905060606 83 141 9.6 16.5 0.00 0.00 0.00 41 1010.2
20260905060506 83 138 8.7 16.5 0.00 0.00 0.00 41 1010.1
20260905060406 83 136 7.0 16.5 0.00 0.00 0.00 41 1010.2
20260905060306 83 140 9.6 16.5 0.00 0.00 0.00 41 1010.1
20260905060206 83 144 8.7 16.5 0.00 0.00 0.00 41 1010.3
20260905060105 83 145 9.6 16.5 0.00 0.00 0.00 41 1010.4
20260905060005 82 145 8.7 16.5 0.00 0.00 0.00 41 1010.2
20260905055905 82 145 9.6 16.5 0.00 0.00 0.00 41 1010.4
20260905055805 82 148 8.7 16.5 0.00 0.00 0.00 41 1010.2
20260905055705 82 148 8.7 16.5 0.00 0.00 0.00 41 1010.1
20260905055605 82 153 9.6 16.5 0.00 0.00 0.00 42 1010.2
20260905055505 82 155 8.7 15.6 0.00 0.00 0.00 41 1010.2
20260905055405 82 158 8.7 15.6 0.00 0.00 0.00 41 1010.3
20260905055306 82 154 9.6 15.6 0.00 0.00 0.00 41 1010.1
20260905055205 82 150 9.6 15.6 0.00 0.00 0.00 41 1010.2
20260905055104 82 149 10.4 15.6 0.00 0.00 0.00 41 1010.1
20260905055004 82 150 10.4 15.6 0.00 0.00 0.00 41 1010.2
20260905054904 82 150 10.4 15.6 0.00 0.00 0.00 41 1009.9
20260905054804 82 152 9.6 15.6 0.00 0.00 0.00 41 1010.2
20260905054704 82 156 9.6 14.8 0.00 0.00 0.00 41 1010.2
20260905054604 82 151 9.6 14.8 0.00 0.00 0.00 41 1010.2
20260905054504 82 149 9.6 14.8 0.00 0.00 0.00 41 1010.0
20260905054404 82 146 8.7 14.8 0.00 0.00 0.00 41 1010.2
20260905054304 82 148 9.6 14.8 0.00 0.00 0.00 41 1010.2
20260905054204 82 148 10.4 14.8 0.00 0.00 0.00 41 1009.9
20260905054104 82 152 9.6 14.8 0.00 0.00 0.00 42 1010.2
20260905054004 82 156 9.6 14.8 0.00 0.00 0.00 41 1010.2
20260905053904 82 156 10.4 14.8 0.00 0.00 0.00 42 1010.2
20260905053803 82 152 9.6 14.8 0.00 0.00 0.00 42 1010.1
20260905053704 82 147 9.6 14.8 0.00 0.00 0.00 41 1010.2
20260905053603 82 151 10.4 14.8 0.00 0.00 0.00 42 1009.9
20260905053504 82 156 9.6 14.8 0.00 0.00 0.00 42 1010.2
20260905053404 82 156 10.4 14.8 0.00 0.00 0.00 42 1010.1
20260905053303 82 158 9.6 15.6 0.00 0.00 0.00 41 1010.2